Observation data for Welch on 05/26/2019      Previous  Date  Next       Current Mesonet Observations  Soil Data  Daily Summary Page  Observations in Plain Language
KWE2 260500Z 18011KT 22/18 A2997 RMK A01 T02170180  RH  080%=      5-min Rain = 0
KWE2 260501Z 18011KT 22/18 A2997 RMK A01 T02160180  RH  080%=      5-min Rain = 0
KWE2 260502Z 18011KT 22/18 A2997 RMK A01 T02160181  RH  080%=      5-min Rain = 0
KWE2 260503Z 18011KT 22/18 A2997 RMK A01 T02160180  RH  080%=      5-min Rain = 0
KWE2 260504Z 18010KT 22/18 A2997 RMK A01 T02160180  RH  080%=      5-min Rain = 0
KWE2 260505Z 18011KT 22/18 A2997 RMK A01 T02160180  RH  080%=      5-min Rain = 0
KWE2 260506Z 18010KT 22/18 A2997 RMK A01 T02160180  RH  080%=      5-min Rain = 0
KWE2 260507Z 18010KT 22/18 A2997 RMK A01 T02150181  RH  080%=      5-min Rain = 0
KWE2 260508Z 18011KT 22/18 A2997 RMK A01 T02150181  RH  081%=      5-min Rain = 0
KWE2 260509Z 18011KT 22/18 A2997 RMK A01 T02150180  RH  081%=      5-min Rain = 0
KWE2 260510Z 18010KT 22/18 A2996 RMK A01 T02150181  RH  081%=      5-min Rain = 0
KWE2 260511Z 18010KT 22/18 A2996 RMK A01 T02150180  RH  081%=      5-min Rain = 0
KWE2 260512Z 18011KT 21/18 A2996 RMK A01 T02140180  RH  081%=      5-min Rain = 0
KWE2 260513Z 18010KT 21/18 A2996 RMK A01 T02140180  RH  081%=      5-min Rain = 0
KWE2 260514Z 18010KT 21/18 A2997 RMK A01 T02140180  RH  081%=      5-min Rain = 0
KWE2 260515Z 18010KT 21/18 A2996 RMK A01 T02140181  RH  081%=      5-min Rain = 0
KWE2 260516Z 18010KT 21/18 A2996 RMK A01 T02140180  RH  081%=      5-min Rain = 0
KWE2 260517Z 18011KT 21/18 A2996 RMK A01 T02140180  RH  081%=      5-min Rain = 0
KWE2 260518Z 18010KT 21/18 A2996 RMK A01 T02140180  RH  081%=      5-min Rain = 0
KWE2 260519Z 18011KT 21/18 A2996 RMK A01 T02140180  RH  081%=      5-min Rain = 0
KWE2 260520Z 18010KT 21/18 A2996 RMK A01 T02140180  RH  081%=      5-min Rain = 0
KWE2 260521Z 18009KT 21/18 A2996 RMK A01 T02140180  RH  081%=      5-min Rain = 0
KWE2 260522Z 18010KT 21/18 A2996 RMK A01 T02140180  RH  081%=      5-min Rain = 0
KWE2 260523Z 18010KT 21/18 A2996 RMK A01 T02140181  RH  081%=      5-min Rain = 0
KWE2 260524Z 18010KT 21/18 A2996 RMK A01 T02140180  RH  081%=      5-min Rain = 0
KWE2 260525Z 18010KT 21/18 A2996 RMK A01 T02130180  RH  081%=      5-min Rain = 0
KWE2 260526Z 18011KT 21/18 A2996 RMK A01 T02140180  RH  081%=      5-min Rain = 0
KWE2 260527Z 18009KT 21/18 A2996 RMK A01 T02140180  RH  081%=      5-min Rain = 0
KWE2 260528Z 18010KT 21/18 A2996 RMK A01 T02140180  RH  081%=      5-min Rain = 0
KWE2 260529Z 19010KT 21/18 A2996 RMK A01 T02140181  RH  082%=      5-min Rain = 0
KWE2 260530Z 18010KT 21/18 A2996 RMK A01 T02130180  RH  082%=      5-min Rain = 0
KWE2 260531Z 18010KT 21/18 A2996 RMK A01 T02120180  RH  082%=      5-min Rain = 0
KWE2 260532Z 18010KT 21/18 A2996 RMK A01 T02120180  RH  082%=      5-min Rain = 0
KWE2 260533Z 18011KT 21/18 A2996 RMK A01 T02130180  RH  082%=      5-min Rain = 0
KWE2 260534Z 18012G17KT 21/18 A2996 RMK A01 T02130180  RH  082%=      5-min Rain = 0
KWE2 260535Z 18011KT 21/18 A2996 RMK A01 T02130180  RH  082%=      5-min Rain = 0
KWE2 260536Z 18012KT 21/18 A2996 RMK A01 T02130180  RH  081%=      5-min Rain = 0
KWE2 260537Z 18013KT 21/18 A2996 RMK A01 T02140180  RH  081%=      5-min Rain = 0
KWE2 260538Z 18012KT 21/18 A2996 RMK A01 T02140180  RH  081%=      5-min Rain = 0
KWE2 260539Z 18013KT 21/18 A2996 RMK A01 T02140180  RH  081%=      5-min Rain = 0
KWE2 260540Z 18012KT 21/18 A2996 RMK A01 T02140180  RH  081%=      5-min Rain = 0
KWE2 260541Z 18012KT 21/18 A2996 RMK A01 T02140180  RH  081%=      5-min Rain = 0
KWE2 260542Z 18013KT 22/18 A2996 RMK A01 T02150181  RH  081%=      5-min Rain = 0
KWE2 260543Z 18011KT 21/18 A2996 RMK A01 T02140181  RH  081%=      5-min Rain = 0
KWE2 260544Z 18012KT 21/18 A2996 RMK A01 T02140180  RH  081%=      5-min Rain = 0
KWE2 260545Z 18011KT 21/18 A2996 RMK A01 T02130180  RH  081%=      5-min Rain = 0
KWE2 260546Z 19012KT 21/18 A2996 RMK A01 T02140181  RH  081%=      5-min Rain = 0
KWE2 260547Z 19011KT 21/18 A2996 RMK A01 T02130180  RH  082%=      5-min Rain = 0
KWE2 260548Z 19011KT 21/18 A2996 RMK A01 T02130180  RH  082%=      5-min Rain = 0
KWE2 260549Z 19011KT 21/18 A2996 RMK A01 T02130181  RH  082%=      5-min Rain = 0
KWE2 260550Z 19010KT 21/18 A2996 RMK A01 T02130181  RH  082%=      5-min Rain = 0
KWE2 260551Z 19010KT 21/18 A2996 RMK A01 T02130181  RH  082%=      5-min Rain = 0
KWE2 260552Z 19010KT 21/18 A2996 RMK A01 T02120181  RH  082%=      5-min Rain = 0
KWE2 260553Z 19011KT 21/18 A2996 RMK A01 T02120181  RH  082%=      5-min Rain = 0
KWE2 260554Z 19010KT 21/18 A2996 RMK A01 T02120181  RH  082%=      5-min Rain = 0
KWE2 260555Z 19010KT 21/18 A2996 RMK A01 T02110180  RH  082%=      5-min Rain = 0
KWE2 260556Z 19009KT 21/18 A2996 RMK A01 T02110181  RH  083%=      5-min Rain = 0
KWE2 260557Z 19010KT 21/18 A2996 RMK A01 T02110180  RH  083%=      5-min Rain = 0
KWE2 260558Z 19010KT 21/18 A2996 RMK A01 T02110181  RH  083%=      5-min Rain = 0
KWE2 260559Z 19009KT 21/18 A2996 RMK A01 T02110181  RH  083%=      5-min Rain = 0
KWE2 260600Z 19009KT 21/18 A2996 RMK A01 T02110181  RH  082%=      5-min Rain = 0
KWE2 260601Z 18009KT 21/18 A2996 RMK A01 T02110180  RH  083%=      5-min Rain = 0
KWE2 260602Z 19009KT 21/18 A2996 RMK A01 T02100180  RH  083%=      5-min Rain = 0
KWE2 260603Z 18009KT 21/18 A2996 RMK A01 T02100181  RH  083%=      5-min Rain = 0
KWE2 260604Z 18009KT 21/18 A2996 RMK A01 T02100180  RH  083%=      5-min Rain = 0
KWE2 260605Z 18008KT 21/18 A2996 RMK A01 T02100181  RH  083%=      5-min Rain = 0
KWE2 260606Z 18009KT 21/18 A2996 RMK A01 T02100181  RH  083%=      5-min Rain = 0
KWE2 260607Z 18008KT 21/18 A2996 RMK A01 T02090181  RH  084%=      5-min Rain = 0
KWE2 260608Z 18008KT 21/18 A2996 RMK A01 T02090181  RH  084%=      5-min Rain = 0
KWE2 260609Z 18008KT 21/18 A2996 RMK A01 T02090181  RH  084%=      5-min Rain = 0
KWE2 260610Z 18009KT 21/18 A2996 RMK A01 T02090180  RH  084%=      5-min Rain = 0
KWE2 260611Z 18010KT 21/18 A2996 RMK A01 T02090181  RH  084%=      5-min Rain = 0
KWE2 260612Z 18010KT 21/18 A2996 RMK A01 T02100181  RH  084%=      5-min Rain = 0
KWE2 260613Z 18009KT 21/18 A2996 RMK A01 T02100181  RH  083%=      5-min Rain = 0
KWE2 260614Z 18010KT 21/18 A2996 RMK A01 T02110181  RH  083%=      5-min Rain = 0
KWE2 260615Z 18009KT 21/18 A2996 RMK A01 T02110181  RH  083%=      5-min Rain = 0
KWE2 260616Z 18009KT 21/18 A2996 RMK A01 T02100181  RH  083%=      5-min Rain = 0
KWE2 260617Z 18010KT 21/18 A2996 RMK A01 T02100181  RH  084%=      5-min Rain = 0
KWE2 260618Z 18009KT 21/18 A2996 RMK A01 T02100181  RH  084%=      5-min Rain = 0
KWE2 260619Z 17009KT 21/18 A2996 RMK A01 T02090181  RH  084%=      5-min Rain = 0
KWE2 260620Z 17009KT 21/18 A2996 RMK A01 T02090181  RH  084%=      5-min Rain = 0
KWE2 260621Z 17009KT 21/18 A2996 RMK A01 T02090181  RH  084%=      5-min Rain = 0
KWE2 260622Z 17008KT 21/18 A2996 RMK A01 T02090181  RH  084%=      5-min Rain = 0
KWE2 260623Z 17008KT 21/18 A2996 RMK A01 T02090181  RH  084%=      5-min Rain = 0
KWE2 260624Z 17008KT 21/18 A2997 RMK A01 T02080181  RH  084%=      5-min Rain = 0
KWE2 260625Z 16008KT 21/18 A2997 RMK A01 T02070181  RH  085%=      5-min Rain = 0
KWE2 260626Z 17008KT 21/18 A2997 RMK A01 T02070181  RH  085%=      5-min Rain = 0
KWE2 260627Z 16008KT 21/18 A2997 RMK A01 T02060181  RH  085%=      5-min Rain = 0
KWE2 260628Z 16008KT 21/18 A2997 RMK A01 T02060180  RH  085%=      5-min Rain = 0
KWE2 260629Z 16008KT 21/18 A2997 RMK A01 T02060181  RH  086%=      5-min Rain = 0
KWE2 260630Z 15007KT 21/18 A2997 RMK A01 T02050181  RH  086%=      5-min Rain = 0
KWE2 260631Z 15007KT 21/18 A2997 RMK A01 T02050181  RH  086%=      5-min Rain = 0
KWE2 260632Z 15008KT 20/18 A2997 RMK A01 T02040181  RH  086%=      5-min Rain = 0
KWE2 260633Z 15007KT 20/18 A2997 RMK A01 T02040180  RH  086%=      5-min Rain = 0
KWE2 260634Z 15008KT 20/18 A2997 RMK A01 T02040181  RH  087%=      5-min Rain = 0
KWE2 260635Z 15007KT 20/18 A2997 RMK A01 T02030180  RH  087%=      5-min Rain = 0
KWE2 260636Z 15007KT 20/18 A2997 RMK A01 T02030181  RH  087%=      5-min Rain = 0
KWE2 260637Z 14007KT 20/18 A2997 RMK A01 T02020180  RH  087%=      5-min Rain = 0
KWE2 260638Z 14007KT 20/18 A2997 RMK A01 T02020180  RH  087%=      5-min Rain = 0
KWE2 260639Z 14007KT 20/18 A2997 RMK A01 T02020180  RH  087%=      5-min Rain = 0
KWE2 260640Z 14006KT 20/18 A2997 RMK A01 T02010180  RH  088%=      5-min Rain = 0
KWE2 260641Z 13006KT 20/18 A2997 RMK A01 T02010180  RH  088%=      5-min Rain = 0
KWE2 260642Z 13006KT 20/18 A2997 RMK A01 T02000180  RH  088%=      5-min Rain = 0
KWE2 260643Z 13006KT 20/18 A2997 RMK A01 T02000181  RH  089%=      5-min Rain = 0
KWE2 260644Z 12006KT 20/18 A2997 RMK A01 T01990181  RH  089%=      5-min Rain = 0
KWE2 260645Z 13006KT 20/18 A2997 RMK A01 T01980181  RH  090%=      5-min Rain = 0
KWE2 260646Z 13006KT 20/18 A2996 RMK A01 T01970181  RH  090%=      5-min Rain = 0
KWE2 260647Z 14007KT 20/18 A2996 RMK A01 T01970182  RH  091%=      5-min Rain = 0
KWE2 260648Z 14006KT 20/18 A2996 RMK A01 T01970182  RH  091%=      5-min Rain = 0
KWE2 260649Z 15006KT 20/18 A2996 RMK A01 T01960182  RH  091%=      5-min Rain = 0
KWE2 260650Z 15007KT 20/18 A2996 RMK A01 T01970183  RH  092%=      5-min Rain = 0
KWE2 260651Z 15007KT 20/18 A2996 RMK A01 T01970182  RH  092%=      5-min Rain = 0
KWE2 260652Z 16007KT 20/18 A2996 RMK A01 T01970182  RH  091%=      5-min Rain = 0
KWE2 260653Z 16007KT 20/18 A2996 RMK A01 T01970182  RH  091%=      5-min Rain = 0
KWE2 260654Z 16008KT 20/18 A2996 RMK A01 T01980182  RH  090%=      5-min Rain = 0
KWE2 260655Z 16008KT 20/18 A2996 RMK A01 T01980182  RH  090%=      5-min Rain = 0
KWE2 260656Z 17008KT 20/18 A2996 RMK A01 T01980182  RH  090%=      5-min Rain = 0
KWE2 260657Z 17008KT 20/18 A2996 RMK A01 T01980182  RH  090%=      5-min Rain = 0
KWE2 260658Z 17008KT 20/18 A2996 RMK A01 T01980181  RH  090%=      5-min Rain = 0
KWE2 260659Z 17008KT 20/18 A2996 RMK A01 T01980181  RH  090%=      5-min Rain = 0
KWE2 260700Z 17008KT 20/18 A2996 RMK A01 T01980181  RH  090%=      5-min Rain = 0
KWE2 260701Z 17008KT 20/18 A2996 RMK A01 T01980182  RH  090%=      5-min Rain = 0
KWE2 260702Z 17008KT 20/18 A2996 RMK A01 T01980182  RH  090%=      5-min Rain = 0
KWE2 260703Z 17008KT 20/18 A2996 RMK A01 T01980182  RH  090%=      5-min Rain = 0
KWE2 260704Z 17008KT 20/18 A2996 RMK A01 T01980182  RH  090%=      5-min Rain = 0
KWE2 260705Z 16007KT 20/18 A2996 RMK A01 T01980182  RH  090%=      5-min Rain = 0
KWE2 260706Z 16007KT 20/18 A2996 RMK A01 T01970181  RH  091%=      5-min Rain = 0
KWE2 260707Z 16008KT 20/18 A2996 RMK A01 T01970181  RH  091%=      5-min Rain = 0
KWE2 260708Z 16007KT 20/18 A2996 RMK A01 T01970182  RH  091%=      5-min Rain = 0
KWE2 260709Z 16008KT 20/18 A2996 RMK A01 T01960182  RH  091%=      5-min Rain = 0
KWE2 260710Z 16007KT 20/18 A2996 RMK A01 T01960182  RH  092%=      5-min Rain = 0
KWE2 260711Z 16008KT 20/18 A2996 RMK A01 T01960182  RH  092%=      5-min Rain = 0
KWE2 260712Z 16007KT 20/18 A2996 RMK A01 T01950182  RH  092%=      5-min Rain = 0
KWE2 260713Z 16007KT 20/18 A2996 RMK A01 T01950182  RH  093%=      5-min Rain = 0
KWE2 260714Z 16007KT 20/18 A2996 RMK A01 T01950183  RH  093%=      5-min Rain = 0
KWE2 260715Z 16007KT 20/18 A2996 RMK A01 T01950183  RH  093%=      5-min Rain = 0
KWE2 260716Z 16007KT 20/18 A2996 RMK A01 T01950183  RH  093%=      5-min Rain = 0
KWE2 260717Z 16007KT 19/18 A2996 RMK A01 T01940183  RH  093%=      5-min Rain = 0
KWE2 260718Z 16007KT 19/18 A2996 RMK A01 T01940183  RH  093%=      5-min Rain = 0
KWE2 260719Z 16007KT 19/18 A2996 RMK A01 T01940183  RH  094%=      5-min Rain = 0
KWE2 260720Z 15007KT 19/18 A2996 RMK A01 T01940183  RH  093%=      5-min Rain = 0
KWE2 260721Z 15008KT 19/18 A2995 RMK A01 T01940183  RH  093%=      5-min Rain = 0
KWE2 260722Z 15008KT 20/18 A2995 RMK A01 T01950183  RH  093%=      5-min Rain = 0
KWE2 260723Z 15008KT 20/18 A2995 RMK A01 T01950183  RH  093%=      5-min Rain = 0
KWE2 260724Z 15008KT 20/18 A2996 RMK A01 T01960183  RH  092%=      5-min Rain = 0
KWE2 260725Z 15008KT 20/18 A2996 RMK A01 T01950183  RH  092%=      5-min Rain = 0
KWE2 260726Z 15008KT 20/18 A2996 RMK A01 T01960183  RH  092%=      5-min Rain = 0
KWE2 260727Z 15008KT 20/18 A2996 RMK A01 T01960183  RH  092%=      5-min Rain = 0
KWE2 260728Z 15007KT 20/18 A2996 RMK A01 T01960182  RH  092%=      5-min Rain = 0
KWE2 260729Z 14007KT 20/18 A2996 RMK A01 T01960182  RH  092%=      5-min Rain = 0
KWE2 260730Z 14006KT 20/18 A2996 RMK A01 T01950182  RH  092%=      5-min Rain = 0
KWE2 260731Z 14007KT 19/18 A2996 RMK A01 T01940182  RH  093%=      5-min Rain = 0
KWE2 260732Z 14007KT 19/18 A2996 RMK A01 T01940183  RH  093%=      5-min Rain = 0
KWE2 260733Z 15007KT 19/18 A2996 RMK A01 T01930183  RH  094%=      5-min Rain = 0
KWE2 260734Z 15007KT 19/18 A2996 RMK A01 T01930183  RH  094%=      5-min Rain = 0
KWE2 260735Z 15009KT 20/18 A2996 RMK A01 T01950184  RH  093%=      5-min Rain = 0
KWE2 260736Z 15008KT 20/18 A2996 RMK A01 T01950183  RH  093%=      5-min Rain = 0
KWE2 260737Z 15009KT 20/18 A2996 RMK A01 T01960183  RH  092%=      5-min Rain = 0
KWE2 260738Z 15009KT 20/18 A2996 RMK A01 T01970183  RH  092%=      5-min Rain = 0
KWE2 260739Z 15008KT 20/18 A2996 RMK A01 T01970183  RH  091%=      5-min Rain = 0
KWE2 260740Z 15008KT 20/18 A2995 RMK A01 T01970182  RH  091%=      5-min Rain = 0
KWE2 260741Z 15008KT 20/18 A2995 RMK A01 T01970182  RH  091%=      5-min Rain = 0
KWE2 260742Z 15008KT 20/18 A2995 RMK A01 T01970182  RH  091%=      5-min Rain = 0
KWE2 260743Z 15008KT 20/18 A2995 RMK A01 T01960182  RH  092%=      5-min Rain = 0
KWE2 260744Z 15007KT 20/18 A2995 RMK A01 T01960183  RH  092%=      5-min Rain = 0
KWE2 260745Z 15007KT 20/18 A2995 RMK A01 T01950182  RH  093%=      5-min Rain = 0
KWE2 260746Z 15007KT 19/18 A2995 RMK A01 T01940183  RH  093%=      5-min Rain = 0
KWE2 260747Z 15007KT 19/18 A2995 RMK A01 T01940183  RH  093%=      5-min Rain = 0
KWE2 260748Z 15007KT 19/18 A2995 RMK A01 T01940183  RH  093%=      5-min Rain = 0
KWE2 260749Z 15008KT 19/18 A2995 RMK A01 T01940183  RH  094%=      5-min Rain = 0
KWE2 260750Z 15008KT 19/18 A2995 RMK A01 T01930183  RH  094%=      5-min Rain = 0
KWE2 260751Z 15008KT 19/18 A2995 RMK A01 T01940183  RH  093%=      5-min Rain = 0
KWE2 260752Z 14008KT 19/18 A2995 RMK A01 T01940183  RH  093%=      5-min Rain = 0
KWE2 260753Z 14007KT 19/18 A2995 RMK A01 T01940183  RH  093%=      5-min Rain = 0
KWE2 260754Z 14007KT 19/18 A2995 RMK A01 T01940183  RH  094%=      5-min Rain = 0
KWE2 260755Z 14007KT 19/18 A2995 RMK A01 T01930183  RH  094%=      5-min Rain = 0
KWE2 260756Z 14007KT 19/18 A2995 RMK A01 T01930183  RH  094%=      5-min Rain = 0
KWE2 260757Z 13007KT 19/18 A2995 RMK A01 T01930183  RH  094%=      5-min Rain = 0
KWE2 260758Z 13007KT 19/18 A2996 RMK A01 T01920183  RH  094%=      5-min Rain = 0
KWE2 260759Z 13006KT 19/18 A2996 RMK A01 T01920184  RH  095%=      5-min Rain = 0
KWE2 260800Z 13006KT 19/18 A2996 RMK A01 T01920183  RH  095%=      5-min Rain = 0
KWE2 260801Z 13007KT 19/18 A2996 RMK A01 T01920184  RH  095%=      5-min Rain = 0
KWE2 260802Z 13007KT 19/18 A2996 RMK A01 T01910184  RH  095%=      5-min Rain = 0
KWE2 260803Z 13007KT 19/18 A2996 RMK A01 T01910184  RH  096%=      5-min Rain = 0
KWE2 260804Z 13007KT 19/18 A2996 RMK A01 T01910184  RH  096%=      5-min Rain = 0
KWE2 260805Z 13006KT 19/18 A2996 RMK A01 T01910184  RH  096%=      5-min Rain = 0
KWE2 260806Z 13006KT 19/19 A2996 RMK A01 T01910185  RH  096%=      5-min Rain = 0
KWE2 260807Z 13007KT 19/19 A2996 RMK A01 T01910185  RH  096%=      5-min Rain = 0
KWE2 260808Z 13007KT 19/19 A2996 RMK A01 T01910185  RH  096%=      5-min Rain = 0
KWE2 260809Z 14006KT 19/19 A2996 RMK A01 T01910185  RH  096%=      5-min Rain = 0
KWE2 260810Z 14007KT 19/19 A2995 RMK A01 T01910185  RH  096%=      5-min Rain = 0
KWE2 260811Z 14007KT 19/19 A2995 RMK A01 T01910185  RH  096%=      5-min Rain = 0
KWE2 260812Z 14007KT 19/19 A2995 RMK A01 T01910185  RH  096%=      5-min Rain = 0
KWE2 260813Z 14008KT 19/18 A2995 RMK A01 T01910184  RH  096%=      5-min Rain = 0
KWE2 260814Z 14008KT 19/19 A2995 RMK A01 T01920185  RH  096%=      5-min Rain = 0
KWE2 260815Z 14008KT 19/19 A2995 RMK A01 T01920185  RH  096%=      5-min Rain = 0
KWE2 260816Z 14008KT 19/19 A2995 RMK A01 T01930185  RH  095%=      5-min Rain = 0
KWE2 260817Z 15008KT 19/18 A2995 RMK A01 T01930184  RH  095%=      5-min Rain = 0
KWE2 260818Z 15008KT 19/18 A2995 RMK A01 T01930184  RH  095%=      5-min Rain = 0
KWE2 260819Z 15008KT 19/19 A2995 RMK A01 T01930185  RH  095%=      5-min Rain = 0
KWE2 260820Z 15008KT 19/18 A2995 RMK A01 T01930184  RH  095%=      5-min Rain = 0
KWE2 260821Z 15008KT 19/18 A2995 RMK A01 T01920184  RH  095%=      5-min Rain = 0
KWE2 260822Z 15008KT 19/18 A2995 RMK A01 T01920184  RH  095%=      5-min Rain = 0
KWE2 260823Z 15009KT 19/19 A2995 RMK A01 T01920185  RH  095%=      5-min Rain = 0
KWE2 260824Z 15009KT 19/19 A2995 RMK A01 T01920185  RH  096%=      5-min Rain = 0
KWE2 260825Z 15009KT 19/19 A2995 RMK A01 T01920185  RH  095%=      5-min Rain = 0
KWE2 260826Z 15009KT 19/19 A2995 RMK A01 T01930185  RH  095%=      5-min Rain = 0
KWE2 260827Z 15009KT 19/18 A2995 RMK A01 T01930184  RH  095%=      5-min Rain = 0
KWE2 260828Z 15009KT 19/19 A2995 RMK A01 T01930185  RH  095%=      5-min Rain = 0
KWE2 260829Z 15009KT 19/19 A2995 RMK A01 T01930185  RH  095%=      5-min Rain = 0
KWE2 260830Z 15009KT 19/19 A2995 RMK A01 T01930185  RH  095%=      5-min Rain = 0
KWE2 260831Z 15009KT 19/18 A2995 RMK A01 T01930184  RH  095%=      5-min Rain = 0
KWE2 260832Z 15009KT 19/19 A2995 RMK A01 T01930185  RH  095%=      5-min Rain = 0
KWE2 260833Z 15009KT 19/19 A2995 RMK A01 T01930185  RH  095%=      5-min Rain = 0
KWE2 260834Z 15008KT 19/19 A2995 RMK A01 T01930185  RH  095%=      5-min Rain = 0
KWE2 260835Z 15008KT 19/18 A2995 RMK A01 T01920184  RH  095%=      5-min Rain = 0
KWE2 260836Z 15008KT 19/18 A2995 RMK A01 T01920184  RH  096%=      5-min Rain = 0
KWE2 260837Z 15008KT 19/19 A2995 RMK A01 T01910185  RH  096%=      5-min Rain = 0
KWE2 260838Z 15008KT 19/18 A2995 RMK A01 T01910184  RH  096%=      5-min Rain = 0
KWE2 260839Z 15007KT 19/18 A2995 RMK A01 T01900184  RH  096%=      5-min Rain = 0
KWE2 260840Z 15007KT 19/18 A2995 RMK A01 T01900184  RH  096%=      5-min Rain = 0
KWE2 260841Z 15007KT 19/18 A2995 RMK A01 T01890184  RH  097%=      5-min Rain = 0
KWE2 260842Z 15007KT 19/18 A2995 RMK A01 T01890184  RH  097%=      5-min Rain = 0
KWE2 260843Z 14007KT 19/18 A2995 RMK A01 T01880184  RH  097%=      5-min Rain = 0
KWE2 260844Z 14007KT 19/18 A2995 RMK A01 T01880184  RH  097%=      5-min Rain = 0
KWE2 260845Z 14007KT 19/18 A2995 RMK A01 T01880184  RH  098%=      5-min Rain = 0
KWE2 260846Z 14007KT 19/18 A2995 RMK A01 T01870184  RH  098%=      5-min Rain = 0
KWE2 260847Z 14007KT 19/19 A2995 RMK A01 T01870185  RH  098%=      5-min Rain = 0
KWE2 260848Z 14007KT 19/19 A2995 RMK A01 T01870185  RH  098%=      5-min Rain = 0
KWE2 260849Z 14006KT 19/19 A2995 RMK A01 T01870185  RH  099%=      5-min Rain = 0
KWE2 260850Z 14006KT 19/19 A2995 RMK A01 T01870185  RH  099%=      5-min Rain = 0
KWE2 260851Z 14006KT 19/18 A2995 RMK A01 T01860184  RH  099%=      5-min Rain = 0
KWE2 260852Z 14006KT 19/19 A2995 RMK A01 T01860185  RH  099%=      5-min Rain = 0
KWE2 260853Z 14006KT 19/19 A2995 RMK A01 T01870185  RH  099%=      5-min Rain = 0
KWE2 260854Z 14006KT 19/19 A2995 RMK A01 T01860185  RH  099%=      5-min Rain = 0
KWE2 260855Z 14006KT 19/19 A2995 RMK A01 T01860185  RH  099%=      5-min Rain = 0
KWE2 260856Z 14006KT 19/19 A2996 RMK A01 T01860185  RH  099%=      5-min Rain = 0
KWE2 260857Z 14006KT 19/19 A2996 RMK A01 T01860185  RH  099%=      5-min Rain = 0
KWE2 260858Z 15006KT 19/19 A2995 RMK A01 T01860185  RH  099%=      5-min Rain = 0
KWE2 260859Z 15006KT 19/19 A2995 RMK A01 T01860185  RH  100%=      5-min Rain = 0
KWE2 260900Z 15006KT 19/19 A2995 RMK A01 T01860185  RH  099%=      5-min Rain = 0
KWE2 260901Z 15006KT 19/19 A2995 RMK A01 T01850185  RH  100%=      5-min Rain = 0
KWE2 260902Z 15006KT 19/19 A2995 RMK A01 T01850185  RH  100%=      5-min Rain = 0
KWE2 260903Z 15006KT 19/19 A2995 RMK A01 T01850185  RH  100%=      5-min Rain = 0
KWE2 260904Z 14005KT 19/19 A2995 RMK A01 T01850185  RH  100%=      5-min Rain = 0
KWE2 260905Z 14006KT 19/18 A2996 RMK A01 T01850184  RH  100%=      5-min Rain = 0
KWE2 260906Z 14006KT 18/19 A2996 RMK A01 T01840185  RH  100%=      5-min Rain = 0
KWE2 260907Z 14006KT 18/18 A2996 RMK A01 T01840184  RH  100%=      5-min Rain = 0
KWE2 260908Z 14006KT 18/18 A2996 RMK A01 T01840184  RH  100%=      5-min Rain = 0
KWE2 260909Z 14006KT 18/18 A2995 RMK A01 T01840184  RH  100%=      5-min Rain = 0
KWE2 260910Z 14006KT 18/18 A2995 RMK A01 T01840184  RH  100%=      5-min Rain = 0
KWE2 260911Z 13006KT 18/18 A2995 RMK A01 T01840184  RH  100%=      5-min Rain = 0
KWE2 260912Z 14006KT 18/18 A2996 RMK A01 T01840184  RH  100%=      5-min Rain = 0
KWE2 260913Z 13005KT 18/18 A2996 RMK A01 T01840184  RH  100%=      5-min Rain = 0
KWE2 260914Z 14006KT 18/18 A2996 RMK A01 T01840184  RH  100%=      5-min Rain = 0
KWE2 260915Z 14006KT 18/18 A2996 RMK A01 T01830184  RH  100%=      5-min Rain = 0
KWE2 260916Z 14007KT 18/18 A2996 RMK A01 T01840184  RH  100%=      5-min Rain = 0
KWE2 260917Z 14006KT 18/18 A2996 RMK A01 T01830184  RH  100%=      5-min Rain = 0
KWE2 260918Z 14007KT 18/18 A2996 RMK A01 T01840184  RH  100%=      5-min Rain = 0
KWE2 260919Z 14007KT 18/18 A2995 RMK A01 T01840184  RH  100%=      5-min Rain = 0
KWE2 260920Z 14007KT 19/19 A2995 RMK A01 T01850185  RH  100%=      5-min Rain = 0
KWE2 260921Z 14006KT 19/19 A2995 RMK A01 T01860186  RH  100%=      5-min Rain = 0
KWE2 260922Z 14007KT 19/19 A2996 RMK A01 T01860186  RH  100%=      5-min Rain = 0
KWE2 260923Z 14006KT 19/19 A2996 RMK A01 T01870187  RH  100%=      5-min Rain = 0
KWE2 260924Z 15007KT 19/19 A2995 RMK A01 T01870187  RH  100%=      5-min Rain = 0
KWE2 260925Z 14007KT 19/19 A2995 RMK A01 T01880188  RH  100%=      5-min Rain = 0
KWE2 260926Z 14007KT 19/19 A2995 RMK A01 T01880188  RH  100%=      5-min Rain = 0
KWE2 260927Z 14007KT 19/19 A2995 RMK A01 T01880188  RH  100%=      5-min Rain = 0
KWE2 260928Z 14007KT 19/19 A2995 RMK A01 T01890189  RH  100%=      5-min Rain = 0
KWE2 260929Z 14007KT 19/19 A2995 RMK A01 T01890190  RH  100%=      5-min Rain = 0
KWE2 260930Z 14007KT 19/19 A2995 RMK A01 T01900190  RH  100%=      5-min Rain = 0
KWE2 260931Z 14007KT 19/19 A2995 RMK A01 T01900190  RH  100%=      5-min Rain = 0
KWE2 260932Z 14007KT 19/19 A2996 RMK A01 T01910191  RH  100%=      5-min Rain = 0
KWE2 260933Z 15007KT 19/19 A2995 RMK A01 T01910191  RH  100%=      5-min Rain = 0
KWE2 260934Z 14007KT 19/19 A2995 RMK A01 T01910191  RH  100%=      5-min Rain = 0
KWE2 260935Z 15007KT 19/19 A2996 RMK A01 T01910191  RH  100%=      5-min Rain = 0
KWE2 260936Z 15007KT 19/19 A2996 RMK A01 T01910191  RH  100%=      5-min Rain = 0
KWE2 260937Z 14006KT 19/19 A2996 RMK A01 T01920191  RH  099%=      5-min Rain = 0
KWE2 260938Z 15007KT 19/19 A2996 RMK A01 T01920191  RH  099%=      5-min Rain = 0
KWE2 260939Z 15007KT 19/19 A2996 RMK A01 T01920191  RH  099%=      5-min Rain = 0
KWE2 260940Z 15007KT 19/19 A2996 RMK A01 T01920191  RH  099%=      5-min Rain = 0
KWE2 260941Z 15007KT 19/19 A2996 RMK A01 T01930191  RH  099%=      5-min Rain = 0
KWE2 260942Z 15006KT 19/19 A2996 RMK A01 T01920191  RH  099%=      5-min Rain = 0
KWE2 260943Z 15006KT 19/19 A2996 RMK A01 T01920191  RH  099%=      5-min Rain = 0
KWE2 260944Z 15006KT 19/19 A2996 RMK A01 T01930192  RH  099%=      5-min Rain = 0
KWE2 260945Z 15006KT 19/19 A2996 RMK A01 T01920192  RH  099%=      5-min Rain = 0
KWE2 260946Z 16007KT 19/19 A2996 RMK A01 T01930192  RH  099%=      5-min Rain = 0
KWE2 260947Z 15007KT 19/19 A2996 RMK A01 T01930192  RH  099%=      5-min Rain = 0
KWE2 260948Z 16006KT 19/19 A2996 RMK A01 T01930192  RH  099%=      5-min Rain = 0
KWE2 260949Z 16006KT 19/19 A2996 RMK A01 T01940192  RH  099%=      5-min Rain = 0
KWE2 260950Z 16007KT 19/19 A2996 RMK A01 T01940192  RH  099%=      5-min Rain = 0
KWE2 260951Z 16007KT 19/19 A2996 RMK A01 T01940192  RH  099%=      5-min Rain = 0
KWE2 260952Z 16007KT 19/19 A2996 RMK A01 T01940193  RH  099%=      5-min Rain = 0
KWE2 260953Z 15006KT 19/19 A2996 RMK A01 T01940193  RH  099%=      5-min Rain = 0
KWE2 260954Z 16008KT 19/19 A2996 RMK A01 T01940193  RH  099%=      5-min Rain = 0
KWE2 260955Z 16007KT 20/19 A2996 RMK A01 T01950193  RH  099%=      5-min Rain = 0
KWE2 260956Z 16007KT 20/19 A2996 RMK A01 T01950194  RH  099%=      5-min Rain = 0
KWE2 260957Z 15007KT 20/19 A2996 RMK A01 T01950194  RH  099%=      5-min Rain = 0
KWE2 260958Z 16007KT 20/19 A2996 RMK A01 T01960194  RH  099%=      5-min Rain = 0
KWE2 260959Z 16007KT 20/19 A2996 RMK A01 T01960194  RH  099%=      5-min Rain = 0
KWE2 261000Z 15007KT 20/19 A2996 RMK A01 T01950194  RH  099%=      5-min Rain = 0
KWE2 261001Z 16008KT 20/20 A2996 RMK A01 T01960195  RH  099%=      5-min Rain = 0
KWE2 261002Z 16007KT 20/20 A2996 RMK A01 T01960195  RH  099%=      5-min Rain = 0
KWE2 261003Z 16008KT 20/20 A2996 RMK A01 T01970195  RH  099%=      5-min Rain = 0
KWE2 261004Z 15008KT 20/20 A2996 RMK A01 T01960195  RH  099%=      5-min Rain = 0
KWE2 261005Z 16007KT 20/20 A2996 RMK A01 T01970196  RH  099%=      5-min Rain = 0
KWE2 261006Z 16008KT 20/20 A2996 RMK A01 T01970195  RH  099%=      5-min Rain = 0
KWE2 261007Z 16007KT 20/20 A2996 RMK A01 T01970196  RH  099%=      5-min Rain = 0
KWE2 261008Z 16008KT 20/20 A2996 RMK A01 T01970196  RH  099%=      5-min Rain = 0
KWE2 261009Z 16007KT 20/20 A2996 RMK A01 T01980196  RH  099%=      5-min Rain = 0
KWE2 261010Z 15008KT 20/20 A2996 RMK A01 T01980197  RH  099%=      5-min Rain = 0
KWE2 261011Z 16008KT 20/20 A2997 RMK A01 T01980197  RH  099%=      5-min Rain = 0
KWE2 261012Z 15007KT 20/20 A2997 RMK A01 T01980197  RH  099%=      5-min Rain = 0
KWE2 261013Z 15008KT 20/20 A2997 RMK A01 T01980197  RH  099%=      5-min Rain = 0
KWE2 261014Z 15008KT 20/20 A2997 RMK A01 T01990197  RH  099%=      5-min Rain = 0
KWE2 261015Z 15008KT 20/20 A2997 RMK A01 T01990197  RH  099%=      5-min Rain = 0
KWE2 261016Z 15008KT 20/20 A2996 RMK A01 T01990197  RH  099%=      5-min Rain = 0
KWE2 261017Z 15009KT 20/20 A2996 RMK A01 T01990197  RH  099%=      5-min Rain = 0
KWE2 261018Z 15009KT 20/20 A2996 RMK A01 T02000198  RH  099%=      5-min Rain = 0
KWE2 261019Z 15008KT 20/20 A2996 RMK A01 T02000198  RH  099%=      5-min Rain = 0
KWE2 261020Z 15009KT 20/20 A2996 RMK A01 T02000198  RH  099%=      5-min Rain = 0
KWE2 261021Z 15010KT 20/20 A2996 RMK A01 T02000198  RH  099%=      5-min Rain = 0
KWE2 261022Z 15008KT 20/20 A2996 RMK A01 T02000198  RH  099%=      5-min Rain = 0
KWE2 261023Z 15010KT 20/20 A2996 RMK A01 T02000198  RH  099%=      5-min Rain = 0
KWE2 261024Z 15009KT 20/20 A2996 RMK A01 T02000198  RH  099%=      5-min Rain = 0
KWE2 261025Z 15008KT 20/20 A2996 RMK A01 T02000199  RH  099%=      5-min Rain = 0
KWE2 261026Z 15009KT 20/20 A2996 RMK A01 T02000198  RH  099%=      5-min Rain = 0
KWE2 261027Z 15008KT 20/20 A2996 RMK A01 T02000199  RH  099%=      5-min Rain = 0
KWE2 261028Z 15008KT 20/20 A2996 RMK A01 T02000199  RH  099%=      5-min Rain = 0
KWE2 261029Z 15008KT 20/20 A2996 RMK A01 T02010199  RH  099%=      5-min Rain = 0
KWE2 261030Z 15008KT 20/20 A2997 RMK A01 T02000199  RH  099%=      5-min Rain = 0
KWE2 261031Z 15009KT 20/20 A2997 RMK A01 T02010200  RH  099%=      5-min Rain = 0
KWE2 261032Z 16009KT 20/20 A2997 RMK A01 T02010200  RH  099%=      5-min Rain = 0
KWE2 261033Z 16008KT 20/20 A2997 RMK A01 T02010200  RH  099%=      5-min Rain = 0
KWE2 261034Z 15008KT 20/20 A2997 RMK A01 T02010200  RH  099%=      5-min Rain = 0
KWE2 261035Z 16010KT 20/20 A2997 RMK A01 T02010200  RH  099%=      5-min Rain = 0
KWE2 261036Z 15009KT 20/20 A2997 RMK A01 T02010199  RH  099%=      5-min Rain = 0
KWE2 261037Z 16010KT 20/20 A2997 RMK A01 T02010200  RH  099%=      5-min Rain = 0
KWE2 261038Z 15009KT 20/20 A2997 RMK A01 T02010200  RH  099%=      5-min Rain = 0
KWE2 261039Z 15010KT 20/20 A2997 RMK A01 T02020200  RH  099%=      5-min Rain = 0
KWE2 261040Z 15010KT 20/20 A2997 RMK A01 T02010200  RH  099%=      5-min Rain = 0
KWE2 261041Z 16010KT 20/20 A2997 RMK A01 T02020200  RH  099%=      5-min Rain = 0
KWE2 261042Z 16010KT 20/20 A2997 RMK A01 T02020200  RH  099%=      5-min Rain = 0
KWE2 261043Z 16010KT 20/20 A2997 RMK A01 T02020200  RH  099%=      5-min Rain = 0
KWE2 261044Z 16009KT 20/20 A2997 RMK A01 T02020200  RH  099%=      5-min Rain = 0
KWE2 261045Z 15010KT 20/20 A2997 RMK A01 T02020200  RH  099%=      5-min Rain = 0
KWE2 261046Z 15010KT 20/20 A2997 RMK A01 T02020200  RH  099%=      5-min Rain = 0
KWE2 261047Z 16011KT 20/20 A2997 RMK A01 T02020200  RH  099%=      5-min Rain = 0
KWE2 261048Z 15010KT 20/20 A2998 RMK A01 T02030200  RH  098%=      5-min Rain = 0
KWE2 261049Z 16010KT 20/20 A2998 RMK A01 T02030200  RH  098%=      5-min Rain = 0
KWE2 261050Z 16011KT 20/20 A2998 RMK A01 T02030200  RH  098%=      5-min Rain = 0
KWE2 261051Z 16011KT 20/20 A2998 RMK A01 T02030200  RH  098%=      5-min Rain = 0
KWE2 261052Z 16009KT 20/20 A2998 RMK A01 T02030200  RH  098%=      5-min Rain = 0
KWE2 261053Z 15009KT 20/20 A2998 RMK A01 T02030200  RH  098%=      5-min Rain = 0
KWE2 261054Z 16010KT 20/20 A2998 RMK A01 T02030200  RH  098%=      5-min Rain = 0
KWE2 261055Z 16010KT 20/20 A2998 RMK A01 T02030200  RH  098%=      5-min Rain = 0
KWE2 261056Z 16011KT 20/20 A2998 RMK A01 T02030200  RH  098%=      5-min Rain = 0
KWE2 261057Z 15011KT 20/20 A2998 RMK A01 T02030200  RH  098%=      5-min Rain = 0
KWE2 261058Z 16012KT 20/20 A2998 RMK A01 T02030200  RH  098%=      5-min Rain = 0
KWE2 261059Z 15012KT 20/20 A2998 RMK A01 T02030201  RH  098%=      5-min Rain = 0
KWE2 261100Z 16009KT 20/20 A2998 RMK A01 T02030201  RH  098%=      5-min Rain = 0
KWE2 261101Z 16011KT 20/20 A2998 RMK A01 T02030201  RH  098%=      5-min Rain = 0
KWE2 261102Z 16009KT 20/20 A2998 RMK A01 T02030201  RH  098%=      5-min Rain = 0
KWE2 261103Z 16010KT 20/20 A2998 RMK A01 T02030201  RH  099%=      5-min Rain = 0
KWE2 261104Z 15010KT 20/20 A2998 RMK A01 T02030201  RH  099%=      5-min Rain = 0
KWE2 261105Z 15009KT 20/20 A2998 RMK A01 T02030201  RH  099%=      5-min Rain = 0
KWE2 261106Z 15011KT 20/20 A2998 RMK A01 T02030201  RH  099%=      5-min Rain = 0
KWE2 261107Z 16011KT 20/20 A2998 RMK A01 T02030201  RH  099%=      5-min Rain = 0
KWE2 261108Z 15011KT 20/20 A2998 RMK A01 T02030201  RH  099%=      5-min Rain = 0
KWE2 261109Z 15010KT 20/20 A2998 RMK A01 T02030201  RH  099%=      5-min Rain = 0
KWE2 261110Z 15011KT 20/20 A2998 RMK A01 T02030201  RH  099%=      5-min Rain = 0
KWE2 261111Z 15011KT 20/20 A2998 RMK A01 T02030201  RH  099%=      5-min Rain = 0
KWE2 261112Z 15010KT 20/20 A2998 RMK A01 T02030201  RH  099%=      5-min Rain = 0
KWE2 261113Z 15010KT 20/20 A2998 RMK A01 T02030201  RH  099%=      5-min Rain = 0
KWE2 261114Z 15011KT 20/20 A2998 RMK A01 T02030201  RH  099%=      5-min Rain = 0
KWE2 261115Z 15011KT 20/20 A2998 RMK A01 T02030201  RH  099%=      5-min Rain = 0
KWE2 261116Z 15013KT 20/20 A2998 RMK A01 T02030201  RH  099%=      5-min Rain = 0
KWE2 261117Z 16014KT 20/20 A2998 RMK A01 T02040201  RH  098%=      5-min Rain = 0
KWE2 261118Z 15012KT 20/20 A2998 RMK A01 T02040201  RH  098%=      5-min Rain = 0
KWE2 261119Z 15011KT 20/20 A2998 RMK A01 T02040201  RH  098%=      5-min Rain = 0
KWE2 261120Z 15012KT 20/20 A2998 RMK A01 T02040201  RH  098%=      5-min Rain = 0
KWE2 261121Z 15011KT 20/20 A2998 RMK A01 T02040201  RH  098%=      5-min Rain = 0
KWE2 261122Z 15011KT 20/20 A2998 RMK A01 T02040201  RH  098%=      5-min Rain = 0
KWE2 261123Z 15010KT 20/20 A2998 RMK A01 T02040201  RH  098%=      5-min Rain = 0
KWE2 261124Z 15011KT 20/20 A2998 RMK A01 T02040201  RH  098%=      5-min Rain = 0
KWE2 261125Z 15012KT 20/20 A2998 RMK A01 T02040201  RH  098%=      5-min Rain = 0
KWE2 261126Z 15014KT 20/20 A2998 RMK A01 T02040201  RH  098%=      5-min Rain = 0
KWE2 261127Z 15011KT 21/20 A2998 RMK A01 T02050201  RH  098%=      5-min Rain = 0
KWE2 261128Z 16012KT 21/20 A2998 RMK A01 T02050201  RH  098%=      5-min Rain = 0
KWE2 261129Z 15011KT 21/20 A2998 RMK A01 T02050201  RH  098%=      5-min Rain = 0
KWE2 261130Z 15011KT 21/20 A2998 RMK A01 T02050201  RH  098%=      5-min Rain = 0
KWE2 261131Z 16012KT 21/20 A2998 RMK A01 T02050201  RH  098%=      5-min Rain = 0
KWE2 261132Z 16011KT 20/20 A2998 RMK A01 T02040201  RH  098%=      5-min Rain = 0
KWE2 261133Z 15011KT 21/20 A2998 RMK A01 T02050201  RH  098%=      5-min Rain = 0
KWE2 261134Z 16013KT 21/20 A2998 RMK A01 T02050201  RH  098%=      5-min Rain = 0
KWE2 261135Z 15012KT 21/20 A2998 RMK A01 T02050201  RH  098%=      5-min Rain = 0
KWE2 261136Z 15013KT 21/20 A2998 RMK A01 T02050201  RH  097%=      5-min Rain = 0
KWE2 261137Z 15012KT 21/20 A2998 RMK A01 T02050201  RH  097%=      5-min Rain = 0
KWE2 261138Z 15012KT 21/20 A2998 RMK A01 T02050201  RH  097%=      5-min Rain = 0
KWE2 261139Z 16013KT 21/20 A2998 RMK A01 T02050201  RH  097%=      5-min Rain = 0
KWE2 261140Z 16012KT 21/20 A2999 RMK A01 T02050201  RH  097%=      5-min Rain = 0
KWE2 261141Z 16011KT 21/20 A2999 RMK A01 T02050201  RH  097%=      5-min Rain = 0
KWE2 261142Z 16012KT 21/20 A2999 RMK A01 T02060201  RH  097%=      5-min Rain = 0
KWE2 261143Z 16013KT 21/20 A2999 RMK A01 T02050201  RH  097%=      5-min Rain = 0
KWE2 261144Z 16013KT 21/20 A2999 RMK A01 T02060201  RH  097%=      5-min Rain = 0
KWE2 261145Z 16011KT 21/20 A2999 RMK A01 T02060201  RH  097%=      5-min Rain = 0
KWE2 261146Z 16013KT 21/20 A2999 RMK A01 T02060201  RH  097%=      5-min Rain = 0
KWE2 261147Z 16011KT 21/20 A2999 RMK A01 T02060201  RH  097%=      5-min Rain = 0
KWE2 261148Z 16012KT 21/20 A2999 RMK A01 T02060201  RH  097%=      5-min Rain = 0
KWE2 261149Z 15011KT 21/20 A2998 RMK A01 T02060201  RH  097%=      5-min Rain = 0
KWE2 261150Z 16012KT 21/20 A2998 RMK A01 T02060201  RH  097%=      5-min Rain = 0
KWE2 261151Z 15013KT 21/20 A2998 RMK A01 T02060201  RH  097%=      5-min Rain = 0
KWE2 261152Z 15012KT 21/20 A2998 RMK A01 T02060201  RH  097%=      5-min Rain = 0
KWE2 261153Z 15013KT 21/20 A2998 RMK A01 T02060200  RH  097%=      5-min Rain = 0
KWE2 261154Z 15012KT 21/20 A2998 RMK A01 T02060200  RH  096%=      5-min Rain = 0
KWE2 261155Z 15014KT 21/20 A2998 RMK A01 T02070201  RH  096%=      5-min Rain = 0
KWE2 261156Z 15013KT 21/20 A2998 RMK A01 T02060200  RH  096%=      5-min Rain = 0
KWE2 261157Z 15014KT 21/20 A2998 RMK A01 T02070201  RH  096%=      5-min Rain = 0
KWE2 261158Z 15013KT 21/20 A2998 RMK A01 T02060200  RH  096%=      5-min Rain = 0
KWE2 261159Z 15014KT 21/20 A2998 RMK A01 T02060200  RH  096%=      5-min Rain = 0
KWE2 261200Z 15013KT 21/20 A2998 RMK A01 T02070200  RH  096%=      5-min Rain = 0
KWE2 261201Z 16013KT 21/20 A2998 RMK A01 T02070200  RH  096%=      5-min Rain = 0
KWE2 261202Z 15012KT 21/20 A2998 RMK A01 T02070200  RH  096%=      5-min Rain = 0
KWE2 261203Z 15014KT 21/20 A2998 RMK A01 T02070200  RH  096%=      5-min Rain = 0
KWE2 261204Z 15013KT 21/20 A2998 RMK A01 T02070200  RH  096%=      5-min Rain = 0
KWE2 261205Z 15013KT 21/20 A2998 RMK A01 T02070200  RH  096%=      5-min Rain = 0
KWE2 261206Z 15013KT 21/20 A2998 RMK A01 T02070200  RH  096%=      5-min Rain = 0
KWE2 261207Z 15012KT 21/20 A2998 RMK A01 T02070200  RH  096%=      5-min Rain = 0
KWE2 261208Z 16013KT 21/20 A2998 RMK A01 T02070200  RH  096%=      5-min Rain = 0
KWE2 261209Z 16013KT 21/20 A2999 RMK A01 T02080200  RH  096%=      5-min Rain = 0
KWE2 261210Z 16014KT 21/20 A2998 RMK A01 T02070200  RH  096%=      5-min Rain = 0
KWE2 261211Z 15013KT 21/20 A2998 RMK A01 T02070200  RH  095%=      5-min Rain = 0
KWE2 261212Z 16013KT 21/20 A2999 RMK A01 T02080200  RH  095%=      5-min Rain = 0
KWE2 261213Z 15014KT 21/20 A2999 RMK A01 T02080200  RH  095%=      5-min Rain = 0
KWE2 261214Z 16013KT 21/20 A2999 RMK A01 T02080200  RH  095%=      5-min Rain = 0
KWE2 261215Z 16012KT 21/20 A2999 RMK A01 T02080200  RH  095%=      5-min Rain = 0
KWE2 261216Z 16013KT 21/20 A2999 RMK A01 T02080200  RH  095%=      5-min Rain = 0
KWE2 261217Z 16013KT 21/20 A2999 RMK A01 T02080200  RH  095%=      5-min Rain = 0
KWE2 261218Z 16013KT 21/20 A2999 RMK A01 T02080200  RH  095%=      5-min Rain = 0
KWE2 261219Z 15013KT 21/20 A2999 RMK A01 T02080199  RH  095%=      5-min Rain = 0
KWE2 261220Z 15013KT 21/20 A2999 RMK A01 T02080199  RH  095%=      5-min Rain = 0
KWE2 261221Z 16013KT 21/20 A2999 RMK A01 T02080200  RH  095%=      5-min Rain = 0
KWE2 261222Z 15011KT 21/20 A2999 RMK A01 T02080200  RH  095%=      5-min Rain = 0
KWE2 261223Z 15012KT 21/20 A2999 RMK A01 T02080200  RH  095%=      5-min Rain = 0
KWE2 261224Z 15013KT 21/20 A2999 RMK A01 T02080200  RH  095%=      5-min Rain = 0
KWE2 261225Z 15011KT 21/20 A2999 RMK A01 T02080200  RH  095%=      5-min Rain = 0
KWE2 261226Z 15010KT 21/20 A2999 RMK A01 T02080200  RH  095%=      5-min Rain = 0
KWE2 261227Z 16012KT 21/20 A2999 RMK A01 T02080200  RH  095%=      5-min Rain = 0
KWE2 261228Z 15011KT 21/20 A2999 RMK A01 T02090200  RH  095%=      5-min Rain = 0
KWE2 261229Z 15013KT 21/20 A2999 RMK A01 T02090200  RH  095%=      5-min Rain = 0
KWE2 261230Z 15014KT 21/20 A2999 RMK A01 T02090200  RH  094%=      5-min Rain = 0
KWE2 261231Z 15013KT 21/20 A2999 RMK A01 T02090199  RH  094%=      5-min Rain = 0
KWE2 261232Z 15014KT 21/20 A2999 RMK A01 T02090199  RH  094%=      5-min Rain = 0
KWE2 261233Z 15012KT 21/20 A2999 RMK A01 T02090199  RH  094%=      5-min Rain = 0
KWE2 261234Z 15014KT 21/20 A2999 RMK A01 T02090199  RH  094%=      5-min Rain = 0
KWE2 261235Z 15013KT 21/20 A2999 RMK A01 T02100199  RH  093%=      5-min Rain = 0
KWE2 261236Z 15013KT 21/20 A2999 RMK A01 T02100199  RH  093%=      5-min Rain = 0
KWE2 261237Z 15013KT 21/20 A2999 RMK A01 T02100199  RH  093%=      5-min Rain = 0
KWE2 261238Z 16013KT 21/20 A2999 RMK A01 T02110199  RH  093%=      5-min Rain = 0
KWE2 261239Z 15015KT 21/20 A2999 RMK A01 T02110198  RH  092%=      5-min Rain = 0
KWE2 261240Z 15014KT 21/20 A2999 RMK A01 T02110197  RH  092%=      5-min Rain = 0
KWE2 261241Z 15015KT 21/20 A2999 RMK A01 T02120197  RH  091%=      5-min Rain = 0
KWE2 261242Z 15014KT 21/20 A2999 RMK A01 T02120197  RH  091%=      5-min Rain = 0
KWE2 261243Z 15015KT 21/20 A2999 RMK A01 T02120197  RH  091%=      5-min Rain = 0
KWE2 261244Z 16015KT 21/20 A2999 RMK A01 T02120196  RH  091%=      5-min Rain = 0
KWE2 261245Z 16015KT 21/20 A2999 RMK A01 T02120196  RH  090%=      5-min Rain = 0
KWE2 261246Z 15014KT 21/20 A2999 RMK A01 T02130196  RH  090%=      5-min Rain = 0
KWE2 261247Z 16015KT 21/20 A2999 RMK A01 T02130196  RH  090%=      5-min Rain = 0
KWE2 261248Z 16019KT 21/20 A2999 RMK A01 T02130195  RH  089%=      5-min Rain = 0
KWE2 261249Z 16016KT 21/19 A2999 RMK A01 T02130194  RH  089%=      5-min Rain = 0
KWE2 261250Z 16017KT 21/19 A2999 RMK A01 T02130194  RH  089%=      5-min Rain = 0
KWE2 261251Z 16016KT 21/19 A2999 RMK A01 T02140194  RH  088%=      5-min Rain = 0
KWE2 261252Z 16019KT 21/19 A2999 RMK A01 T02140193  RH  088%=      5-min Rain = 0
KWE2 261253Z 16017KT 21/19 A2999 RMK A01 T02140194  RH  088%=      5-min Rain = 0
KWE2 261254Z 16017KT 21/19 A2999 RMK A01 T02140194  RH  088%=      5-min Rain = 0
KWE2 261255Z 16018KT 21/19 A2999 RMK A01 T02140193  RH  088%=      5-min Rain = 0
KWE2 261256Z 16018KT 22/19 A2999 RMK A01 T02150193  RH  087%=      5-min Rain = 0
KWE2 261257Z 16014KT 22/19 A2999 RMK A01 T02150193  RH  087%=      5-min Rain = 0
KWE2 261258Z 16017KT 22/19 A2999 RMK A01 T02150193  RH  088%=      5-min Rain = 0
KWE2 261259Z 16018KT 22/19 A2999 RMK A01 T02150193  RH  087%=      5-min Rain = 0
KWE2 261300Z 16018KT 22/19 A2999 RMK A01 T02150192  RH  087%=      5-min Rain = 0
KWE2 261301Z 16016G22KT 22/19 A2999 RMK A01 T02150192  RH  087%=      5-min Rain = 0
KWE2 261302Z 16018KT 22/19 A2999 RMK A01 T02160192  RH  086%=      5-min Rain = 0
KWE2 261303Z 16017KT 22/19 A2999 RMK A01 T02160192  RH  086%=      5-min Rain = 0
KWE2 261304Z 16015KT 22/19 A2999 RMK A01 T02160193  RH  087%=      5-min Rain = 0
KWE2 261305Z 16016KT 22/19 A2999 RMK A01 T02160193  RH  086%=      5-min Rain = 0
KWE2 261306Z 16016KT 22/19 A2999 RMK A01 T02170193  RH  086%=      5-min Rain = 0
KWE2 261307Z 16016KT 22/19 A2999 RMK A01 T02170192  RH  086%=      5-min Rain = 0
KWE2 261308Z 16016KT 22/19 A2999 RMK A01 T02170193  RH  086%=      5-min Rain = 0
KWE2 261309Z 16017KT 22/19 A2999 RMK A01 T02180192  RH  085%=      5-min Rain = 0
KWE2 261310Z 16018KT 22/19 A2999 RMK A01 T02170192  RH  085%=      5-min Rain = 0
KWE2 261311Z 16019KT 22/19 A2999 RMK A01 T02180192  RH  085%=      5-min Rain = 0
KWE2 261312Z 16016KT 22/19 A2999 RMK A01 T02180192  RH  085%=      5-min Rain = 0
KWE2 261313Z 16015KT 22/19 A2999 RMK A01 T02180192  RH  085%=      5-min Rain = 0
KWE2 261314Z 16015KT 22/19 A2999 RMK A01 T02180192  RH  085%=      5-min Rain = 0
KWE2 261315Z 16014KT 22/19 A2999 RMK A01 T02190192  RH  085%=      5-min Rain = 0
KWE2 261316Z 16017KT 22/19 A2999 RMK A01 T02190192  RH  085%=      5-min Rain = 0
KWE2 261317Z 16016KT 22/19 A2999 RMK A01 T02190191  RH  084%=      5-min Rain = 0
KWE2 261318Z 16015KT 22/19 A2999 RMK A01 T02190192  RH  084%=      5-min Rain = 0
KWE2 261319Z 17013KT 22/19 A2999 RMK A01 T02200192  RH  084%=      5-min Rain = 0
KWE2 261320Z 16017G23KT 22/19 A2999 RMK A01 T02200192  RH  084%=      5-min Rain = 0
KWE2 261321Z 16018G23KT 22/19 A2999 RMK A01 T02200191  RH  084%=      5-min Rain = 0
KWE2 261322Z 17019G24KT 22/19 A2999 RMK A01 T02200192  RH  084%=      5-min Rain = 0
KWE2 261323Z 16019KT 22/19 A2999 RMK A01 T02200191  RH  084%=      5-min Rain = 0
KWE2 261324Z 16018KT 22/19 A2999 RMK A01 T02210192  RH  084%=      5-min Rain = 0
KWE2 261325Z 16020KT 22/19 A2999 RMK A01 T02200191  RH  084%=      5-min Rain = 0
KWE2 261326Z 16018KT 22/19 A2999 RMK A01 T02200192  RH  084%=      5-min Rain = 0
KWE2 261327Z 16015KT 22/19 A2999 RMK A01 T02200192  RH  084%=      5-min Rain = 0
KWE2 261328Z 16017KT 22/19 A2999 RMK A01 T02200192  RH  084%=      5-min Rain = 0
KWE2 261329Z 16017KT 22/19 A2999 RMK A01 T02200192  RH  084%=      5-min Rain = 0
KWE2 261330Z 16018G25KT 22/19 A2999 RMK A01 T02200192  RH  084%=      5-min Rain = 0
KWE2 261331Z 15021KT 22/19 A2999 RMK A01 T02200191  RH  084%=      5-min Rain = 0
KWE2 261332Z 15019KT 22/19 A2999 RMK A01 T02200191  RH  084%=      5-min Rain = 0
KWE2 261333Z 16020KT 22/19 A2999 RMK A01 T02200191  RH  084%=      5-min Rain = 0
KWE2 261334Z 17020KT 22/19 A2999 RMK A01 T02200191  RH  084%=      5-min Rain = 0
KWE2 261335Z 16017KT 22/19 A2999 RMK A01 T02200192  RH  084%=      5-min Rain = 0
KWE2 261336Z 16015KT 22/19 A2999 RMK A01 T02200192  RH  084%=      5-min Rain = 0
KWE2 261337Z 16017G22KT 22/19 A2999 RMK A01 T02200192  RH  084%=      5-min Rain = 0
KWE2 261338Z 16020KT 22/19 A2999 RMK A01 T02200192  RH  084%=      5-min Rain = 0
KWE2 261339Z 16020KT 22/19 A2999 RMK A01 T02200191  RH  084%=      5-min Rain = 0
KWE2 261340Z 16019KT 22/19 A2999 RMK A01 T02200192  RH  084%=      5-min Rain = 0
KWE2 261341Z 16017KT 22/19 A2999 RMK A01 T02200192  RH  084%=      5-min Rain = 0
KWE2 261342Z 17017KT 22/19 A2999 RMK A01 T02200192  RH  084%=      5-min Rain = 0
KWE2 261343Z 16015KT 22/19 A2999 RMK A01 T02200192  RH  084%=      5-min Rain = 0
KWE2 261344Z 16018KT 22/19 A2999 RMK A01 T02200192  RH  084%=      5-min Rain = 0
KWE2 261345Z 17018KT 22/19 A30 RMK A01 T02200192  RH  084%=      5-min Rain = 0
KWE2 261346Z 16017KT 22/19 A30 RMK A01 T02200192  RH  084%=      5-min Rain = 0
KWE2 261347Z 17020KT 22/19 A30 RMK A01 T02200191  RH  084%=      5-min Rain = 0
KWE2 261348Z 17018KT 22/19 A30 RMK A01 T02200191  RH  083%=      5-min Rain = 0
KWE2 261349Z 17014KT 22/19 A30 RMK A01 T02200191  RH  084%=      5-min Rain = 0
KWE2 261350Z 17016KT 22/19 A30 RMK A01 T02200191  RH  083%=      5-min Rain = 0
KWE2 261351Z 17015KT 22/19 A30 RMK A01 T02210192  RH  084%=      5-min Rain = 0
KWE2 261352Z 17016KT 22/19 A30 RMK A01 T02210192  RH  084%=      5-min Rain = 0
KWE2 261353Z 18017KT 22/19 A30 RMK A01 T02210192  RH  084%=      5-min Rain = 0
KWE2 261354Z 17019KT 22/19 A30 RMK A01 T02210192  RH  084%=      5-min Rain = 0
KWE2 261355Z 17019KT 22/19 A30 RMK A01 T02210191  RH  083%=      5-min Rain = 0
KWE2 261356Z 17018KT 22/19 A30 RMK A01 T02210191  RH  083%=      5-min Rain = 0
KWE2 261357Z 17015KT 22/19 A30 RMK A01 T02210191  RH  084%=      5-min Rain = 0
KWE2 261358Z 17017KT 22/19 A30 RMK A01 T02210192  RH  083%=      5-min Rain = 0
KWE2 261359Z 18020KT 22/19 A30 RMK A01 T02220191  RH  083%=      5-min Rain = 0
KWE2 261400Z 17019KT 22/19 A30 RMK A01 T02220191  RH  083%=      5-min Rain = 0
KWE2 261401Z 17017KT 22/19 A30 RMK A01 T02210191  RH  083%=      5-min Rain = 0
KWE2 261402Z 18016KT 22/19 A30 RMK A01 T02220192  RH  083%=      5-min Rain = 0
KWE2 261403Z 17018KT 22/19 A30 RMK A01 T02220192  RH  083%=      5-min Rain = 0
KWE2 261404Z 17018KT 22/19 A30 RMK A01 T02220191  RH  083%=      5-min Rain = 0
KWE2 261405Z 17016KT 22/19 A30 RMK A01 T02220192  RH  083%=      5-min Rain = 0
KWE2 261406Z 16019KT 22/19 A30 RMK A01 T02210192  RH  083%=      5-min Rain = 0
KWE2 261407Z 17018KT 22/19 A30 RMK A01 T02210192  RH  084%=      5-min Rain = 0
KWE2 261408Z 17016KT 22/19 A30 RMK A01 T02210192  RH  084%=      5-min Rain = 0
KWE2 261409Z 17016KT 22/19 A3001 RMK A01 T02210191  RH  084%=      5-min Rain = 0
KWE2 261410Z 17016KT 22/19 A3001 RMK A01 T02210192  RH  084%=      5-min Rain = 0
KWE2 261411Z 17015KT 22/19 A3001 RMK A01 T02210192  RH  084%=      5-min Rain = 0
KWE2 261412Z 17017KT 22/19 A3001 RMK A01 T02220192  RH  083%=      5-min Rain = 0
KWE2 261413Z 17017KT 22/19 A3001 RMK A01 T02220191  RH  083%=      5-min Rain = 0
KWE2 261414Z 17017KT 22/19 A3001 RMK A01 T02220191  RH  082%=      5-min Rain = 0
KWE2 261415Z 18017KT 22/19 A3001 RMK A01 T02230191  RH  082%=      5-min Rain = 0
KWE2 261416Z 18016KT 22/19 A3001 RMK A01 T02230192  RH  082%=      5-min Rain = 0
KWE2 261417Z 18016KT 22/19 A3001 RMK A01 T02240192  RH  082%=      5-min Rain = 0
KWE2 261418Z 17016KT 23/19 A3001 RMK A01 T02250192  RH  081%=      5-min Rain = 0
KWE2 261419Z 17018KT 23/19 A3001 RMK A01 T02250192  RH  081%=      5-min Rain = 0
KWE2 261420Z 17019KT 23/19 A3001 RMK A01 T02260191  RH  081%=      5-min Rain = 0
KWE2 261421Z 17017KT 23/19 A3001 RMK A01 T02260192  RH  081%=      5-min Rain = 0
KWE2 261422Z 17019KT 23/19 A3001 RMK A01 T02260191  RH  081%=      5-min Rain = 0
KWE2 261423Z 17017KT 23/19 A3001 RMK A01 T02250191  RH  081%=      5-min Rain = 0
KWE2 261424Z 17017KT 23/19 A3001 RMK A01 T02250192  RH  081%=      5-min Rain = 0
KWE2 261425Z 17020KT 23/19 A3001 RMK A01 T02250191  RH  081%=      5-min Rain = 0
KWE2 261426Z 17020KT 23/19 A3001 RMK A01 T02250191  RH  081%=      5-min Rain = 0
KWE2 261427Z 17020KT 23/19 A3001 RMK A01 T02250190  RH  081%=      5-min Rain = 0
KWE2 261428Z 17020KT 23/19 A3001 RMK A01 T02250190  RH  080%=      5-min Rain = 0
KWE2 261429Z 17020KT 23/19 A3001 RMK A01 T02250190  RH  080%=      5-min Rain = 0
KWE2 261430Z 17019KT 23/19 A3001 RMK A01 T02250191  RH  081%=      5-min Rain = 0
KWE2 261431Z 17017KT 23/19 A3001 RMK A01 T02250191  RH  081%=      5-min Rain = 0
KWE2 261432Z 17018KT 23/19 A3001 RMK A01 T02250191  RH  081%=      5-min Rain = 0
KWE2 261433Z 17018KT 23/19 A3001 RMK A01 T02260192  RH  081%=      5-min Rain = 0
KWE2 261434Z 17018KT 23/19 A3001 RMK A01 T02260192  RH  081%=      5-min Rain = 0
KWE2 261435Z 17015KT 23/19 A3001 RMK A01 T02260192  RH  081%=      5-min Rain = 0
KWE2 261436Z 18018KT 23/19 A3001 RMK A01 T02260191  RH  081%=      5-min Rain = 0
KWE2 261437Z 17015KT 23/19 A3001 RMK A01 T02260191  RH  080%=      5-min Rain = 0
KWE2 261438Z 17019G25KT 23/19 A3001 RMK A01 T02260191  RH  081%=      5-min Rain = 0
KWE2 261439Z 17022KT 23/19 A3001 RMK A01 T02260190  RH  080%=      5-min Rain = 0
KWE2 261440Z 18019KT 23/19 A3001 RMK A01 T02260190  RH  080%=      5-min Rain = 0
KWE2 261441Z 17020KT 23/19 A3001 RMK A01 T02260191  RH  081%=      5-min Rain = 0
KWE2 261442Z 17019KT 23/19 A3001 RMK A01 T02260190  RH  080%=      5-min Rain = 0
KWE2 261443Z 18018KT 23/19 A3001 RMK A01 T02260190  RH  080%=      5-min Rain = 0
KWE2 261444Z 17015G20KT 23/19 A3001 RMK A01 T02270191  RH  080%=      5-min Rain = 0
KWE2 261445Z 17018G23KT 23/19 A3001 RMK A01 T02280192  RH  080%=      5-min Rain = 0
KWE2 261446Z 17019KT 23/19 A3001 RMK A01 T02280190  RH  079%=      5-min Rain = 0
KWE2 261447Z 17020KT 23/19 A3001 RMK A01 T02280191  RH  080%=      5-min Rain = 0
KWE2 261448Z 17018KT 23/19 A3001 RMK A01 T02270191  RH  080%=      5-min Rain = 0
KWE2 261449Z 18020KT 23/19 A3001 RMK A01 T02270190  RH  080%=      5-min Rain = 0
KWE2 261450Z 17019KT 23/19 A3001 RMK A01 T02280190  RH  079%=      5-min Rain = 0
KWE2 261451Z 18020KT 23/19 A3001 RMK A01 T02280190  RH  079%=      5-min Rain = 0
KWE2 261452Z 17019KT 23/19 A3001 RMK A01 T02290190  RH  079%=      5-min Rain = 0
KWE2 261453Z 17019KT 23/19 A3001 RMK A01 T02290190  RH  079%=      5-min Rain = 0
KWE2 261454Z 17017KT 23/19 A3001 RMK A01 T02290190  RH  079%=      5-min Rain = 0
KWE2 261455Z 17019KT 23/19 A3001 RMK A01 T02300190  RH  078%=      5-min Rain = 0
KWE2 261456Z 17019KT 23/19 A30 RMK A01 T02300190  RH  078%=      5-min Rain = 0
KWE2 261457Z 17019KT 23/19 A3001 RMK A01 T02300189  RH  078%=      5-min Rain = 0
KWE2 261458Z 17018KT 23/19 A3001 RMK A01 T02300189  RH  078%=      5-min Rain = 0
KWE2 261459Z 17017KT 23/19 A3001 RMK A01 T02300189  RH  078%=      5-min Rain = 0
KWE2 261500Z 17018KT 23/19 A3001 RMK A01 T02300190  RH  078%=      5-min Rain = 0
KWE2 261501Z 17019KT 23/19 A3001 RMK A01 T02300191  RH  078%=      5-min Rain = 0
KWE2 261502Z 17017KT 23/19 A3001 RMK A01 T02300191  RH  079%=      5-min Rain = 0
KWE2 261503Z 17019G24KT 23/19 A3001 RMK A01 T02300191  RH  078%=      5-min Rain = 0
KWE2 261504Z 17020KT 23/19 A3001 RMK A01 T02300189  RH  078%=      5-min Rain = 0
KWE2 261505Z 17019KT 23/19 A3001 RMK A01 T02300189  RH  078%=      5-min Rain = 0
KWE2 261506Z 17016KT 23/19 A3001 RMK A01 T02310190  RH  078%=      5-min Rain = 0
KWE2 261507Z 17020KT 23/19 A3001 RMK A01 T02330190  RH  077%=      5-min Rain = 0
KWE2 261508Z 17023KT 23/19 A3001 RMK A01 T02330189  RH  076%=      5-min Rain = 0
KWE2 261509Z 17022KT 23/19 A3001 RMK A01 T02320188  RH  076%=      5-min Rain = 0
KWE2 261510Z 17019KT 23/19 A3001 RMK A01 T02310189  RH  077%=      5-min Rain = 0
KWE2 261511Z 18020KT 23/19 A3001 RMK A01 T02310189  RH  077%=      5-min Rain = 0
KWE2 261512Z 17018KT 23/19 A3001 RMK A01 T02320189  RH  077%=      5-min Rain = 0
KWE2 261513Z 17022KT 23/19 A3001 RMK A01 T02320189  RH  077%=      5-min Rain = 0
KWE2 261514Z 17020KT 23/19 A3001 RMK A01 T02330189  RH  077%=      5-min Rain = 0
KWE2 261515Z 17018KT 23/19 A3001 RMK A01 T02330190  RH  077%=      5-min Rain = 0
KWE2 261516Z 17021KT 23/19 A3001 RMK A01 T02340189  RH  076%=      5-min Rain = 0
KWE2 261517Z 17019KT 23/19 A3001 RMK A01 T02340190  RH  076%=      5-min Rain = 0
KWE2 261518Z 17021KT 24/19 A3001 RMK A01 T02350189  RH  076%=      5-min Rain = 0
KWE2 261519Z 16021KT 24/19 A30 RMK A01 T02360189  RH  075%=      5-min Rain = 0
KWE2 261520Z 16018KT 24/19 A30 RMK A01 T02360190  RH  075%=      5-min Rain = 0
KWE2 261521Z 17018KT 24/19 A30 RMK A01 T02380190  RH  075%=      5-min Rain = 0
KWE2 261522Z 17020KT 24/19 A30 RMK A01 T02380189  RH  074%=      5-min Rain = 0
KWE2 261523Z 17020KT 24/19 A30 RMK A01 T02380188  RH  074%=      5-min Rain = 0
KWE2 261524Z 16021KT 24/19 A30 RMK A01 T02360188  RH  074%=      5-min Rain = 0
KWE2 261525Z 17019KT 24/19 A30 RMK A01 T02360188  RH  075%=      5-min Rain = 0
KWE2 261526Z 18020KT 24/19 A30 RMK A01 T02350189  RH  075%=      5-min Rain = 0
KWE2 261527Z 17020KT 24/19 A3001 RMK A01 T02360189  RH  075%=      5-min Rain = 0
KWE2 261528Z 17017KT 24/19 A3001 RMK A01 T02360189  RH  075%=      5-min Rain = 0
KWE2 261529Z 16018KT 24/19 A30 RMK A01 T02370189  RH  074%=      5-min Rain = 0
KWE2 261530Z 17017KT 24/19 A30 RMK A01 T02380190  RH  074%=      5-min Rain = 0
KWE2 261531Z 16018KT 24/19 A3001 RMK A01 T02400190  RH  074%=      5-min Rain = 0
KWE2 261532Z 16020KT 24/19 A3001 RMK A01 T02400190  RH  074%=      5-min Rain = 0
KWE2 261533Z 16017KT 24/19 A30 RMK A01 T02380189  RH  074%=      5-min Rain = 0
KWE2 261534Z 16017KT 24/19 A3001 RMK A01 T02380190  RH  074%=      5-min Rain = 0
KWE2 261535Z 16019KT 24/19 A30 RMK A01 T02380189  RH  074%=      5-min Rain = 0
KWE2 261536Z 17020KT 24/19 A30 RMK A01 T02380188  RH  073%=      5-min Rain = 0
KWE2 261537Z 17018KT 24/19 A30 RMK A01 T02380188  RH  073%=      5-min Rain = 0
KWE2 261538Z 17021KT 24/19 A30 RMK A01 T02390188  RH  073%=      5-min Rain = 0
KWE2 261539Z 18020KT 24/19 A30 RMK A01 T02400188  RH  073%=      5-min Rain = 0
KWE2 261540Z 17021KT 24/19 A30 RMK A01 T02400188  RH  073%=      5-min Rain = 0
KWE2 261541Z 17020KT 24/19 A30 RMK A01 T02390188  RH  073%=      5-min Rain = 0
KWE2 261542Z 17020KT 24/19 A30 RMK A01 T02390188  RH  073%=      5-min Rain = 0
KWE2 261543Z 18021KT 24/19 A30 RMK A01 T02390187  RH  072%=      5-min Rain = 0
KWE2 261544Z 17019KT 24/19 A30 RMK A01 T02390187  RH  073%=      5-min Rain = 0
KWE2 261545Z 18017KT 24/19 A3001 RMK A01 T02400188  RH  073%=      5-min Rain = 0
KWE2 261546Z 17018KT 24/19 A3001 RMK A01 T02410189  RH  073%=      5-min Rain = 0
KWE2 261547Z 16019KT 24/19 A30 RMK A01 T02420189  RH  072%=      5-min Rain = 0
KWE2 261548Z 17018KT 24/19 A30 RMK A01 T02410187  RH  072%=      5-min Rain = 0
KWE2 261549Z 17018KT 24/19 A30 RMK A01 T02400188  RH  073%=      5-min Rain = 0
KWE2 261550Z 17018KT 24/19 A30 RMK A01 T02410187  RH  072%=      5-min Rain = 0
KWE2 261551Z 17018KT 24/19 A3001 RMK A01 T02410188  RH  072%=      5-min Rain = 0
KWE2 261552Z 17019KT 24/19 A3001 RMK A01 T02420188  RH  072%=      5-min Rain = 0
KWE2 261553Z 17015KT 24/19 A3001 RMK A01 T02410189  RH  073%=      5-min Rain = 0
KWE2 261554Z 17017KT 24/19 A3001 RMK A01 T02420189  RH  072%=      5-min Rain = 0
KWE2 261555Z 17015KT 24/19 A3001 RMK A01 T02430190  RH  072%=      5-min Rain = 0
KWE2 261556Z 16016KT 24/19 A3001 RMK A01 T02440190  RH  072%=      5-min Rain = 0
KWE2 261557Z 15018KT 24/19 A3001 RMK A01 T02440189  RH  072%=      5-min Rain = 0
KWE2 261558Z 16016KT 24/19 A30 RMK A01 T02430189  RH  072%=      5-min Rain = 0
KWE2 261559Z 17016KT 24/19 A30 RMK A01 T02430189  RH  072%=      5-min Rain = 0
KWE2 261600Z 17019G24KT 24/19 A30 RMK A01 T02430189  RH  072%=      5-min Rain = 0
KWE2 261601Z 16018KT 24/19 A30 RMK A01 T02430188  RH  071%=      5-min Rain = 0
KWE2 261602Z 16015KT 24/19 A30 RMK A01 T02420189  RH  072%=      5-min Rain = 0
KWE2 261603Z 16020KT 24/19 A30 RMK A01 T02420189  RH  072%=      5-min Rain = 0
KWE2 261604Z 17019KT 24/19 A30 RMK A01 T02420188  RH  072%=      5-min Rain = 0
KWE2 261605Z 17018KT 24/19 A30 RMK A01 T02410188  RH  072%=      5-min Rain = 0
KWE2 261606Z 17021KT 24/19 A30 RMK A01 T02410187  RH  072%=      5-min Rain = 0
KWE2 261607Z 18021KT 24/19 A30 RMK A01 T02410187  RH  072%=      5-min Rain = 0
KWE2 261608Z 17020KT 24/19 A30 RMK A01 T02400186  RH  072%=      5-min Rain = 0
KWE2 261609Z 16020KT 24/19 A30 RMK A01 T02400187  RH  072%=      5-min Rain = 0
KWE2 261610Z 17017KT 24/19 A30 RMK A01 T02410187  RH  072%=      5-min Rain = 0
KWE2 261611Z 17018KT 24/19 A30 RMK A01 T02430188  RH  071%=      5-min Rain = 0
KWE2 261612Z 17020KT 24/19 A30 RMK A01 T02430188  RH  071%=      5-min Rain = 0
KWE2 261613Z 18018KT 24/19 A30 RMK A01 T02430187  RH  071%=      5-min Rain = 0
KWE2 261614Z 17018G23KT 24/19 A30 RMK A01 T02430187  RH  071%=      5-min Rain = 0
KWE2 261615Z 16020KT 24/19 A3001 RMK A01 T02440186  RH  070%=      5-min Rain = 0
KWE2 261616Z 16020KT 24/19 A3001 RMK A01 T02440186  RH  070%=      5-min Rain = 0
KWE2 261617Z 16021KT 24/19 A3001 RMK A01 T02440186  RH  070%=      5-min Rain = 0
KWE2 261618Z 16021KT 25/19 A3001 RMK A01 T02450186  RH  070%=      5-min Rain = 0
KWE2 261619Z 17021KT 24/19 A3001 RMK A01 T02440186  RH  070%=      5-min Rain = 0
KWE2 261620Z 17020KT 24/19 A3001 RMK A01 T02430186  RH  070%=      5-min Rain = 0
KWE2 261621Z 16019KT 24/19 A3001 RMK A01 T02430186  RH  070%=      5-min Rain = 0
KWE2 261622Z 17018KT 24/19 A3001 RMK A01 T02430186  RH  071%=      5-min Rain = 0
KWE2 261623Z 18017KT 24/19 A3001 RMK A01 T02430187  RH  071%=      5-min Rain = 0
KWE2 261624Z 17019KT 25/19 A3001 RMK A01 T02460188  RH  070%=      5-min Rain = 0
KWE2 261625Z 16018KT 25/19 A3001 RMK A01 T02460187  RH  070%=      5-min Rain = 0
KWE2 261626Z 16020KT 24/19 A3001 RMK A01 T02430186  RH  070%=      5-min Rain = 0
KWE2 261627Z 16019KT 24/19 A3001 RMK A01 T02420186  RH  071%=      5-min Rain = 0
KWE2 261628Z 16018G23KT 24/19 A3001 RMK A01 T02410186  RH  071%=      5-min Rain = 0
KWE2 261629Z 16018KT 24/19 A3001 RMK A01 T02410186  RH  071%=      5-min Rain = 0
KWE2 261630Z 16018KT 24/19 A3001 RMK A01 T02420186  RH  071%=      5-min Rain = 0
KWE2 261631Z 17020G25KT 24/19 A3001 RMK A01 T02430186  RH  070%=      5-min Rain = 0
KWE2 261632Z 17018KT 24/19 A3001 RMK A01 T02430186  RH  070%=      5-min Rain = 0
KWE2 261633Z 18018KT 24/19 A3001 RMK A01 T02440186  RH  070%=      5-min Rain = 0
KWE2 261634Z 17018KT 24/19 A3001 RMK A01 T02440186  RH  070%=      5-min Rain = 0
KWE2 261635Z 17018KT 24/19 A3001 RMK A01 T02440187  RH  070%=      5-min Rain = 0
KWE2 261636Z 17019KT 24/19 A3001 RMK A01 T02440186  RH  070%=      5-min Rain = 0
KWE2 261637Z 16019KT 24/19 A3001 RMK A01 T02440186  RH  070%=      5-min Rain = 0
KWE2 261638Z 17018KT 24/19 A3001 RMK A01 T02440186  RH  070%=      5-min Rain = 0
KWE2 261639Z 17015KT 24/19 A3001 RMK A01 T02440186  RH  070%=      5-min Rain = 0
KWE2 261640Z 17020KT 25/19 A3001 RMK A01 T02450186  RH  070%=      5-min Rain = 0
KWE2 261641Z 17020KT 24/19 A3001 RMK A01 T02440186  RH  070%=      5-min Rain = 0
KWE2 261642Z 17017KT 24/19 A3001 RMK A01 T02430186  RH  070%=      5-min Rain = 0
KWE2 261643Z 18018KT 24/19 A3001 RMK A01 T02430186  RH  070%=      5-min Rain = 0
KWE2 261644Z 18018KT 24/19 A3001 RMK A01 T02430185  RH  070%=      5-min Rain = 0
KWE2 261645Z 18016KT 24/19 A3001 RMK A01 T02430185  RH  070%=      5-min Rain = 0
KWE2 261646Z 18018KT 24/19 A3001 RMK A01 T02430186  RH  070%=      5-min Rain = 0
KWE2 261647Z 18018KT 24/19 A3001 RMK A01 T02440186  RH  070%=      5-min Rain = 0
KWE2 261648Z 18019KT 24/19 A3001 RMK A01 T02440186  RH  070%=      5-min Rain = 0
KWE2 261649Z 18017KT 24/19 A3001 RMK A01 T02440186  RH  070%=      5-min Rain = 0
KWE2 261650Z 17018KT 24/19 A3001 RMK A01 T02430186  RH  070%=      5-min Rain = 0
KWE2 261651Z 18020KT 24/19 A3001 RMK A01 T02440186  RH  070%=      5-min Rain = 0
KWE2 261652Z 18019KT 24/19 A3001 RMK A01 T02440185  RH  069%=      5-min Rain = 0
KWE2 261653Z 18017KT 25/19 A3001 RMK A01 T02450186  RH  070%=      5-min Rain = 0
KWE2 261654Z 17020KT 25/19 A3001 RMK A01 T02450186  RH  069%=      5-min Rain = 0
KWE2 261655Z 18018KT 24/19 A3001 RMK A01 T02440185  RH  069%=      5-min Rain = 0
KWE2 261656Z 18019KT 24/19 A3001 RMK A01 T02440185  RH  070%=      5-min Rain = 0
KWE2 261657Z 18017KT 25/19 A3001 RMK A01 T02450186  RH  070%=      5-min Rain = 0
KWE2 261658Z 18016KT 25/19 A30 RMK A01 T02460186  RH  069%=      5-min Rain = 0
KWE2 261659Z 17018KT 25/19 A30 RMK A01 T02470187  RH  069%=      5-min Rain = 0
KWE2 261700Z 17016KT 25/19 A30 RMK A01 T02470186  RH  069%=      5-min Rain = 0
KWE2 261701Z 17017KT 25/19 A30 RMK A01 T02460186  RH  069%=      5-min Rain = 0
KWE2 261702Z 17016KT 25/19 A30 RMK A01 T02460186  RH  069%=      5-min Rain = 0
KWE2 261703Z 16019KT 25/19 A30 RMK A01 T02470186  RH  069%=      5-min Rain = 0
KWE2 261704Z 16019KT 25/19 A30 RMK A01 T02470186  RH  069%=      5-min Rain = 0
KWE2 261705Z 18018KT 25/19 A30 RMK A01 T02470186  RH  069%=      5-min Rain = 0
KWE2 261706Z 17016G21KT 25/19 A30 RMK A01 T02460186  RH  069%=      5-min Rain = 0
KWE2 261707Z 17018KT 25/19 A3001 RMK A01 T02450186  RH  069%=      5-min Rain = 0
KWE2 261708Z 17018KT 25/19 A3001 RMK A01 T02460185  RH  069%=      5-min Rain = 0
KWE2 261709Z 17017KT 25/19 A3001 RMK A01 T02460186  RH  069%=      5-min Rain = 0
KWE2 261710Z 16017KT 25/19 A3001 RMK A01 T02450186  RH  069%=      5-min Rain = 0
KWE2 261711Z 17017KT 25/19 A3001 RMK A01 T02450185  RH  069%=      5-min Rain = 0
KWE2 261712Z 17014KT 25/19 A3001 RMK A01 T02450185  RH  069%=      5-min Rain = 0
KWE2 261713Z 17014KT 24/19 A3001 RMK A01 T02440186  RH  070%=      5-min Rain = 0
KWE2 261714Z 17017KT 25/19 A3001 RMK A01 T02450186  RH  070%=      5-min Rain = 0
KWE2 261715Z 17018KT 25/19 A3001 RMK A01 T02450185  RH  069%=      5-min Rain = 0
KWE2 261716Z 17018KT 25/19 A3001 RMK A01 T02450185  RH  069%=      5-min Rain = 0
KWE2 261717Z 17020KT 24/19 A3001 RMK A01 T02440185  RH  070%=      5-min Rain = 0
KWE2 261718Z 17020KT 24/19 A3001 RMK A01 T02430185  RH  070%=      5-min Rain = 0
KWE2 261719Z 17019KT 24/19 A3001 RMK A01 T02430185  RH  070%=      5-min Rain = 0
KWE2 261720Z 17018KT 24/19 A3001 RMK A01 T02430185  RH  070%=      5-min Rain = 0
KWE2 261721Z 17019KT 25/19 A3001 RMK A01 T02450185  RH  069%=      5-min Rain = 0
KWE2 261722Z 17020KT 25/19 A3001 RMK A01 T02450185  RH  069%=      5-min Rain = 0
KWE2 261723Z 17017KT 24/19 A3001 RMK A01 T02440185  RH  070%=      5-min Rain = 0
KWE2 261724Z 18015KT 24/19 A3001 RMK A01 T02440185  RH  070%=      5-min Rain = 0
KWE2 261725Z 17017KT 25/19 A3001 RMK A01 T02460186  RH  069%=      5-min Rain = 0
KWE2 261726Z 17018KT 25/19 A3001 RMK A01 T02470185  RH  069%=      5-min Rain = 0
KWE2 261727Z 17019KT 25/19 A3001 RMK A01 T02460186  RH  069%=      5-min Rain = 0
KWE2 261728Z 17019KT 25/19 A3001 RMK A01 T02460186  RH  069%=      5-min Rain = 0
KWE2 261729Z 17017KT 25/19 A3001 RMK A01 T02450186  RH  069%=      5-min Rain = 0
KWE2 261730Z 17017KT 25/19 A3001 RMK A01 T02460186  RH  069%=      5-min Rain = 0
KWE2 261731Z 17017KT 25/19 A3001 RMK A01 T02470186  RH  069%=      5-min Rain = 0
KWE2 261732Z 17017KT 25/19 A3001 RMK A01 T02480186  RH  068%=      5-min Rain = 0
KWE2 261733Z 17016KT 25/19 A3001 RMK A01 T02490186  RH  068%=      5-min Rain = 0
KWE2 261734Z 17018KT 25/19 A3001 RMK A01 T02480186  RH  068%=      5-min Rain = 0
KWE2 261735Z 17016KT 25/19 A3001 RMK A01 T02480186  RH  068%=      5-min Rain = 0
KWE2 261736Z 17019KT 25/19 A3001 RMK A01 T02490186  RH  068%=      5-min Rain = 0
KWE2 261737Z 17016KT 25/19 A3001 RMK A01 T02490186  RH  068%=      5-min Rain = 0
KWE2 261738Z 17015KT 25/19 A3001 RMK A01 T02490186  RH  068%=      5-min Rain = 0
KWE2 261739Z 18016G21KT 25/19 A3001 RMK A01 T02510186  RH  067%=      5-min Rain = 0
KWE2 261740Z 18017KT 25/19 A3001 RMK A01 T02510185  RH  066%=      5-min Rain = 0
KWE2 261741Z 18017KT 25/19 A3001 RMK A01 T02510185  RH  067%=      5-min Rain = 0
KWE2 261742Z 18017KT 25/19 A30 RMK A01 T02510185  RH  067%=      5-min Rain = 0
KWE2 261743Z 17018KT 25/19 A30 RMK A01 T02510186  RH  067%=      5-min Rain = 0
KWE2 261744Z 17020KT 25/19 A30 RMK A01 T02500185  RH  067%=      5-min Rain = 0
KWE2 261745Z 17020KT 25/19 A30 RMK A01 T02490186  RH  068%=      5-min Rain = 0
KWE2 261746Z 17019KT 25/19 A30 RMK A01 T02480186  RH  068%=      5-min Rain = 0
KWE2 261747Z 17020KT 25/19 A30 RMK A01 T02480186  RH  068%=      5-min Rain = 0
KWE2 261748Z 17019KT 25/19 A30 RMK A01 T02480186  RH  068%=      5-min Rain = 0
KWE2 261749Z 16020KT 25/19 A30 RMK A01 T02480186  RH  068%=      5-min Rain = 0
KWE2 261750Z 16019KT 25/19 A30 RMK A01 T02480186  RH  068%=      5-min Rain = 0
KWE2 261751Z 17020KT 25/19 A30 RMK A01 T02480185  RH  068%=      5-min Rain = 0
KWE2 261752Z 17017KT 25/19 A30 RMK A01 T02480186  RH  068%=      5-min Rain = 0
KWE2 261753Z 16020KT 25/19 A30 RMK A01 T02490186  RH  068%=      5-min Rain = 0
KWE2 261754Z 17020KT 25/19 A30 RMK A01 T02500185  RH  067%=      5-min Rain = 0
KWE2 261755Z 18017KT 25/19 A30 RMK A01 T02500186  RH  067%=      5-min Rain = 0
KWE2 261756Z 18019KT 25/19 A30 RMK A01 T02510187  RH  067%=      5-min Rain = 0
KWE2 261757Z 18018KT 25/19 A30 RMK A01 T02520186  RH  067%=      5-min Rain = 0
KWE2 261758Z 17019KT 25/19 A30 RMK A01 T02510186  RH  067%=      5-min Rain = 0
KWE2 261759Z 17017KT 25/19 A30 RMK A01 T02520186  RH  067%=      5-min Rain = 0
KWE2 261800Z 17017KT 25/19 A30 RMK A01 T02510186  RH  067%=      5-min Rain = 0
KWE2 261801Z 16016KT 25/19 A30 RMK A01 T02510187  RH  067%=      5-min Rain = 0
KWE2 261802Z 16016KT 25/19 A30 RMK A01 T02510187  RH  067%=      5-min Rain = 0
KWE2 261803Z 17018KT 25/19 A30 RMK A01 T02520188  RH  068%=      5-min Rain = 0
KWE2 261804Z 17019KT 25/19 A30 RMK A01 T02520187  RH  067%=      5-min Rain = 0
KWE2 261805Z 17018KT 25/19 A30 RMK A01 T02520187  RH  067%=      5-min Rain = 0
KWE2 261806Z 18016KT 25/19 A30 RMK A01 T02510187  RH  067%=      5-min Rain = 0
KWE2 261807Z 18018KT 25/19 A30 RMK A01 T02510187  RH  068%=      5-min Rain = 0
KWE2 261808Z 17017KT 25/19 A30 RMK A01 T02510187  RH  068%=      5-min Rain = 0
KWE2 261809Z 16019KT 25/19 A3001 RMK A01 T02510188  RH  068%=      5-min Rain = 0
KWE2 261810Z 16017KT 25/19 A3001 RMK A01 T02500187  RH  068%=      5-min Rain = 0
KWE2 261811Z 17015KT 25/19 A3001 RMK A01 T02500188  RH  068%=      5-min Rain = 0
KWE2 261812Z 17015G20KT 25/19 A3001 RMK A01 T02500188  RH  068%=      5-min Rain = 0
KWE2 261813Z 18017KT 25/19 A3001 RMK A01 T02510187  RH  068%=      5-min Rain = 0
KWE2 261814Z 18016KT 25/19 A3001 RMK A01 T02510187  RH  068%=      5-min Rain = 0
KWE2 261815Z 17015G21KT 25/19 A3001 RMK A01 T02510188  RH  068%=      5-min Rain = 0
KWE2 261816Z 17017KT 25/19 A3001 RMK A01 T02530187  RH  067%=      5-min Rain = 0
KWE2 261817Z 18019KT 25/19 A3001 RMK A01 T02500187  RH  068%=      5-min Rain = 0
KWE2 261818Z 17019KT 25/19 A3001 RMK A01 T02500187  RH  068%=      5-min Rain = 0
KWE2 261819Z 18017KT 25/19 A3001 RMK A01 T02500186  RH  068%=      5-min Rain = 0
KWE2 261820Z 17016KT 25/19 A3001 RMK A01 T02500187  RH  068%=      5-min Rain = 0
KWE2 261821Z 17016KT 25/19 A3001 RMK A01 T02490187  RH  068%=      5-min Rain = 0
KWE2 261822Z 17017KT 25/19 A3001 RMK A01 T02490187  RH  068%=      5-min Rain = 0
KWE2 261823Z 17017KT 25/19 A3001 RMK A01 T02490187  RH  069%=      5-min Rain = 0
KWE2 261824Z 17015KT 25/19 A3001 RMK A01 T02470187  RH  069%=      5-min Rain = 0
KWE2 261825Z 17013KT 25/19 A3001 RMK A01 T02470188  RH  070%=      5-min Rain = 0
KWE2 261826Z 17016KT 25/19 A3001 RMK A01 T02480189  RH  069%=      5-min Rain = 0
KWE2 261827Z 16018KT 25/19 A3001 RMK A01 T02490188  RH  069%=      5-min Rain = 0
KWE2 261828Z 17017KT 25/19 A3001 RMK A01 T02490188  RH  069%=      5-min Rain = 0
KWE2 261829Z 17018KT 25/19 A3001 RMK A01 T02480188  RH  069%=      5-min Rain = 0
KWE2 261830Z 17018KT 25/19 A3001 RMK A01 T02480189  RH  070%=      5-min Rain = 0
KWE2 261831Z 16017KT 25/19 A3001 RMK A01 T02470188  RH  070%=      5-min Rain = 0
KWE2 261832Z 16017KT 25/19 A3001 RMK A01 T02470188  RH  070%=      5-min Rain = 0
KWE2 261833Z 16017KT 25/19 A3001 RMK A01 T02470188  RH  070%=      5-min Rain = 0
KWE2 261834Z 17015KT 25/19 A3001 RMK A01 T02460188  RH  070%=      5-min Rain = 0
KWE2 261835Z 17012KT 25/19 A3001 RMK A01 T02470188  RH  070%=      5-min Rain = 0
KWE2 261836Z 18013KT 25/19 A3002 RMK A01 T02480189  RH  070%=      5-min Rain = 0
KWE2 261837Z 17015KT 25/19 A3002 RMK A01 T02490189  RH  069%=      5-min Rain = 0
KWE2 261838Z 18017KT 25/19 A3002 RMK A01 T02490189  RH  069%=      5-min Rain = 0
KWE2 261839Z 17017KT 25/19 A3002 RMK A01 T02490188  RH  069%=      5-min Rain = 0
KWE2 261840Z 17018KT 25/19 A3002 RMK A01 T02490188  RH  069%=      5-min Rain = 0
KWE2 261841Z 18017KT 25/19 A3002 RMK A01 T02480188  RH  069%=      5-min Rain = 0
KWE2 261842Z 18015KT 25/19 A3002 RMK A01 T02480188  RH  069%=      5-min Rain = 0
KWE2 261843Z 18017KT 25/19 A3002 RMK A01 T02480188  RH  069%=      5-min Rain = 0
KWE2 261844Z 18016KT 25/19 A3002 RMK A01 T02480188  RH  069%=      5-min Rain = 0
KWE2 261845Z 18015KT 25/19 A3002 RMK A01 T02480188  RH  069%=      5-min Rain = 0
KWE2 261846Z 18015KT 25/19 A3002 RMK A01 T02470189  RH  070%=      5-min Rain = 0
KWE2 261847Z 17016KT 25/19 A3002 RMK A01 T02470189  RH  070%=      5-min Rain = 0
KWE2 261848Z 18014KT 25/19 A3002 RMK A01 T02470189  RH  070%=      5-min Rain = 0
KWE2 261849Z 17014KT 25/19 A3002 RMK A01 T02470189  RH  070%=      5-min Rain = 0
KWE2 261850Z 18013KT 25/19 A3002 RMK A01 T02470189  RH  070%=      5-min Rain = 0
KWE2 261851Z 17017KT 25/19 A3002 RMK A01 T02470189  RH  070%=      5-min Rain = 0
KWE2 261852Z 17014KT 25/19 A3002 RMK A01 T02470190  RH  070%=      5-min Rain = 0
KWE2 261853Z 17016KT 25/19 A3002 RMK A01 T02470190  RH  070%=      5-min Rain = 0
KWE2 261854Z 17015KT 25/19 A3002 RMK A01 T02470189  RH  070%=      5-min Rain = 0
KWE2 261855Z 18017KT 25/19 A3002 RMK A01 T02470189  RH  070%=      5-min Rain = 0
KWE2 261856Z 17017KT 25/19 A3002 RMK A01 T02470188  RH  070%=      5-min Rain = 0
KWE2 261857Z 17016KT 25/19 A3002 RMK A01 T02470188  RH  070%=      5-min Rain = 0
KWE2 261858Z 17016KT 25/19 A3002 RMK A01 T02480189  RH  070%=      5-min Rain = 0
KWE2 261859Z 17014KT 25/19 A3002 RMK A01 T02480189  RH  070%=      5-min Rain = 0
KWE2 261900Z 17014KT 25/19 A3002 RMK A01 T02480190  RH  070%=      5-min Rain = 0
KWE2 261901Z 18015KT 25/19 A3001 RMK A01 T02490190  RH  070%=      5-min Rain = 0
KWE2 261902Z 17015KT 25/19 A3001 RMK A01 T02480190  RH  070%=      5-min Rain = 0
KWE2 261903Z 17018KT 25/19 A3001 RMK A01 T02480191  RH  070%=      5-min Rain = 0
KWE2 261904Z 17018KT 25/19 A3001 RMK A01 T02480190  RH  070%=      5-min Rain = 0
KWE2 261905Z 17016KT 25/19 A3002 RMK A01 T02480190  RH  070%=      5-min Rain = 0
KWE2 261906Z 17015KT 25/19 A3002 RMK A01 T02480190  RH  070%=      5-min Rain = 0
KWE2 261907Z 17016KT 25/19 A3002 RMK A01 T02490190  RH  070%=      5-min Rain = 0
KWE2 261908Z 17017KT 25/19 A3001 RMK A01 T02490190  RH  070%=      5-min Rain = 0
KWE2 261909Z 17016KT 25/19 A3001 RMK A01 T02490190  RH  070%=      5-min Rain = 0
KWE2 261910Z 17015KT 25/19 A3001 RMK A01 T02470190  RH  070%=      5-min Rain = 0
KWE2 261911Z 17016KT 25/19 A3001 RMK A01 T02480190  RH  070%=      5-min Rain = 0
KWE2 261912Z 17016KT 25/19 A3001 RMK A01 T02490190  RH  070%=      5-min Rain = 0
KWE2 261913Z 17016KT 25/19 A3001 RMK A01 T02490190  RH  070%=      5-min Rain = 0
KWE2 261914Z 17016KT 25/19 A3001 RMK A01 T02480190  RH  070%=      5-min Rain = 0
KWE2 261915Z 17016KT 25/19 A3001 RMK A01 T02480190  RH  070%=      5-min Rain = 0
KWE2 261916Z 17016KT 25/19 A3001 RMK A01 T02480190  RH  070%=      5-min Rain = 0
KWE2 261917Z 17015KT 25/19 A3001 RMK A01 T02480190  RH  070%=      5-min Rain = 0
KWE2 261918Z 17015KT 25/19 A3001 RMK A01 T02480190  RH  070%=      5-min Rain = 0
KWE2 261919Z 17016KT 25/19 A3001 RMK A01 T02480190  RH  070%=      5-min Rain = 0
KWE2 261920Z 17016KT 25/19 A3001 RMK A01 T02480190  RH  070%=      5-min Rain = 0
KWE2 261921Z 17015KT 25/19 A3001 RMK A01 T02480190  RH  070%=      5-min Rain = 0
KWE2 261922Z 17014KT 25/19 A3001 RMK A01 T02490191  RH  070%=      5-min Rain = 0
KWE2 261923Z 17014KT 25/19 A3001 RMK A01 T02500191  RH  070%=      5-min Rain = 0
KWE2 261924Z 17015KT 25/19 A3001 RMK A01 T02510191  RH  069%=      5-min Rain = 0
KWE2 261925Z 17013KT 25/19 A3001 RMK A01 T02510191  RH  069%=      5-min Rain = 0
KWE2 261926Z 17014KT 25/19 A3001 RMK A01 T02510192  RH  070%=      5-min Rain = 0
KWE2 261927Z 17015KT 25/19 A3001 RMK A01 T02510191  RH  069%=      5-min Rain = 0
KWE2 261928Z 17015KT 25/19 A3001 RMK A01 T02510191  RH  069%=      5-min Rain = 0
KWE2 261929Z 16013KT 25/19 A30 RMK A01 T02500191  RH  070%=      5-min Rain = 0
KWE2 261930Z 17013KT 25/19 A30 RMK A01 T02500191  RH  070%=      5-min Rain = 0
KWE2 261931Z 17012KT 25/19 A30 RMK A01 T02510191  RH  069%=      5-min Rain = 0
KWE2 261932Z 17015KT 25/19 A30 RMK A01 T02520192  RH  069%=      5-min Rain = 0
KWE2 261933Z 17017KT 25/19 A30 RMK A01 T02520191  RH  069%=      5-min Rain = 0
KWE2 261934Z 17015KT 25/19 A30 RMK A01 T02510191  RH  069%=      5-min Rain = 0
KWE2 261935Z 17015KT 25/19 A30 RMK A01 T02520191  RH  069%=      5-min Rain = 0
KWE2 261936Z 16016KT 25/19 A30 RMK A01 T02520191  RH  069%=      5-min Rain = 0
KWE2 261937Z 16016KT 25/19 A30 RMK A01 T02520191  RH  069%=      5-min Rain = 0
KWE2 261938Z 16016KT 25/19 A30 RMK A01 T02530192  RH  069%=      5-min Rain = 0
KWE2 261939Z 17016KT 25/19 A30 RMK A01 T02540192  RH  068%=      5-min Rain = 0
KWE2 261940Z 17018KT 26/19 A30 RMK A01 T02550192  RH  068%=      5-min Rain = 0
KWE2 261941Z 17017KT 25/19 A30 RMK A01 T02540191  RH  068%=      5-min Rain = 0
KWE2 261942Z 17016KT 25/19 A30 RMK A01 T02530191  RH  068%=      5-min Rain = 0
KWE2 261943Z 17016KT 25/19 A30 RMK A01 T02530191  RH  068%=      5-min Rain = 0
KWE2 261944Z 16017KT 25/19 A30 RMK A01 T02530192  RH  069%=      5-min Rain = 0
KWE2 261945Z 17017KT 25/19 A30 RMK A01 T02530191  RH  068%=      5-min Rain = 0
KWE2 261946Z 17016KT 25/19 A30 RMK A01 T02530191  RH  069%=      5-min Rain = 0
KWE2 261947Z 18015KT 25/19 A30 RMK A01 T02530191  RH  069%=      5-min Rain = 0
KWE2 261948Z 16016KT 25/19 A2999 RMK A01 T02540192  RH  068%=      5-min Rain = 0
KWE2 261949Z 15016KT 26/19 A2999 RMK A01 T02550192  RH  068%=      5-min Rain = 0
KWE2 261950Z 16018KT 26/19 A2999 RMK A01 T02560192  RH  068%=      5-min Rain = 0
KWE2 261951Z 16015KT 26/19 A30 RMK A01 T02560192  RH  068%=      5-min Rain = 0
KWE2 261952Z 16015KT 26/19 A30 RMK A01 T02560192  RH  068%=      5-min Rain = 0
KWE2 261953Z 17017KT 26/19 A30 RMK A01 T02570193  RH  068%=      5-min Rain = 0
KWE2 261954Z 17016KT 26/19 A30 RMK A01 T02570193  RH  068%=      5-min Rain = 0
KWE2 261955Z 17016KT 26/19 A30 RMK A01 T02560192  RH  068%=      5-min Rain = 0
KWE2 261956Z 17016KT 26/19 A30 RMK A01 T02560192  RH  068%=      5-min Rain = 0
KWE2 261957Z 16016KT 26/19 A30 RMK A01 T02560192  RH  068%=      5-min Rain = 0
KWE2 261958Z 17017KT 26/19 A30 RMK A01 T02560192  RH  068%=      5-min Rain = 0
KWE2 261959Z 17019KT 26/19 A2999 RMK A01 T02550192  RH  068%=      5-min Rain = 0
KWE2 262000Z 17017KT 25/19 A2999 RMK A01 T02540191  RH  068%=      5-min Rain = 0
KWE2 262001Z 16017KT 25/19 A2999 RMK A01 T02530192  RH  069%=      5-min Rain = 0
KWE2 262002Z 16016KT 25/19 A2999 RMK A01 T02530192  RH  069%=      5-min Rain = 0
KWE2 262003Z 17016KT 25/19 A2999 RMK A01 T02540192  RH  069%=      5-min Rain = 0
KWE2 262004Z 17015KT 26/19 A2999 RMK A01 T02550192  RH  068%=      5-min Rain = 0
KWE2 262005Z 17017KT 26/19 A2999 RMK A01 T02550192  RH  068%=      5-min Rain = 0
KWE2 262006Z 17018KT 26/19 A2999 RMK A01 T02550192  RH  068%=      5-min Rain = 0
KWE2 262007Z 17018KT 26/19 A2999 RMK A01 T02550192  RH  068%=      5-min Rain = 0
KWE2 262008Z 18017KT 26/19 A2999 RMK A01 T02550192  RH  068%=      5-min Rain = 0
KWE2 262009Z 17015KT 26/19 A2999 RMK A01 T02560192  RH  068%=      5-min Rain = 0
KWE2 262010Z 17014KT 26/19 A2999 RMK A01 T02560193  RH  068%=      5-min Rain = 0
KWE2 262011Z 16016KT 26/19 A2999 RMK A01 T02580193  RH  068%=      5-min Rain = 0
KWE2 262012Z 16017KT 26/19 A2998 RMK A01 T02580193  RH  067%=      5-min Rain = 0
KWE2 262013Z 15017KT 26/19 A2998 RMK A01 T02580194  RH  068%=      5-min Rain = 0
KWE2 262014Z 15017KT 26/19 A2998 RMK A01 T02580193  RH  067%=      5-min Rain = 0
KWE2 262015Z 15017KT 26/19 A2998 RMK A01 T02580193  RH  067%=      5-min Rain = 0
KWE2 262016Z 15018KT 26/19 A2998 RMK A01 T02580193  RH  067%=      5-min Rain = 0
KWE2 262017Z 16016KT 26/19 A2998 RMK A01 T02580193  RH  068%=      5-min Rain = 0
KWE2 262018Z 16016KT 26/19 A2998 RMK A01 T02570193  RH  068%=      5-min Rain = 0
KWE2 262019Z 16016KT 26/19 A2998 RMK A01 T02570193  RH  068%=      5-min Rain = 0
KWE2 262020Z 16016KT 26/19 A2998 RMK A01 T02580193  RH  067%=      5-min Rain = 0
KWE2 262021Z 16018KT 26/19 A2998 RMK A01 T02580192  RH  067%=      5-min Rain = 0
KWE2 262022Z 15018KT 26/19 A2998 RMK A01 T02580193  RH  067%=      5-min Rain = 0
KWE2 262023Z 16019KT 26/19 A2998 RMK A01 T02580192  RH  067%=      5-min Rain = 0
KWE2 262024Z 17017KT 26/19 A2998 RMK A01 T02570192  RH  067%=      5-min Rain = 0
KWE2 262025Z 16015KT 26/19 A2997 RMK A01 T02570193  RH  068%=      5-min Rain = 0
KWE2 262026Z 15017KT 26/19 A2997 RMK A01 T02580193  RH  067%=      5-min Rain = 0
KWE2 262027Z 15016KT 26/19 A2997 RMK A01 T02590192  RH  067%=      5-min Rain = 0
KWE2 262028Z 15016KT 26/19 A2997 RMK A01 T02590192  RH  067%=      5-min Rain = 0
KWE2 262029Z 15017KT 26/19 A2997 RMK A01 T02600192  RH  066%=      5-min Rain = 0
KWE2 262030Z 15018KT 26/19 A2997 RMK A01 T02590192  RH  067%=      5-min Rain = 0
KWE2 262031Z 15015KT 26/19 A2997 RMK A01 T02580192  RH  067%=      5-min Rain = 0
KWE2 262032Z 15018KT 26/19 A2997 RMK A01 T02580192  RH  067%=      5-min Rain = 0
KWE2 262033Z 16017KT 26/19 A2997 RMK A01 T02580192  RH  067%=      5-min Rain = 0
KWE2 262034Z 15016KT 26/19 A2997 RMK A01 T02570192  RH  067%=      5-min Rain = 0
KWE2 262035Z 14017KT 26/19 A2997 RMK A01 T02580192  RH  067%=      5-min Rain = 0
KWE2 262036Z 15015KT 26/19 A2997 RMK A01 T02580192  RH  067%=      5-min Rain = 0
KWE2 262037Z 15017KT 26/19 A2997 RMK A01 T02590192  RH  067%=      5-min Rain = 0
KWE2 262038Z 16017KT 26/19 A2997 RMK A01 T02590192  RH  067%=      5-min Rain = 0
KWE2 262039Z 16018KT 26/19 A2997 RMK A01 T02580192  RH  067%=      5-min Rain = 0
KWE2 262040Z 15016KT 26/19 A2996 RMK A01 T02580191  RH  067%=      5-min Rain = 0
KWE2 262041Z 14016KT 26/19 A2996 RMK A01 T02580192  RH  067%=      5-min Rain = 0
KWE2 262042Z 15019KT 26/19 A2996 RMK A01 T02580192  RH  067%=      5-min Rain = 0
KWE2 262043Z 15020KT 26/19 A2996 RMK A01 T02590191  RH  066%=      5-min Rain = 0
KWE2 262044Z 15020KT 26/19 A2996 RMK A01 T02580191  RH  067%=      5-min Rain = 0
KWE2 262045Z 15019KT 26/19 A2996 RMK A01 T02570191  RH  067%=      5-min Rain = 0
KWE2 262046Z 15017KT 26/19 A2996 RMK A01 T02570191  RH  067%=      5-min Rain = 0
KWE2 262047Z 14018KT 26/19 A2996 RMK A01 T02580190  RH  066%=      5-min Rain = 0
KWE2 262048Z 15018KT 26/19 A2996 RMK A01 T02580190  RH  066%=      5-min Rain = 0
KWE2 262049Z 15017KT 26/19 A2996 RMK A01 T02580191  RH  066%=      5-min Rain = 0
KWE2 262050Z 15018KT 26/19 A2996 RMK A01 T02590191  RH  066%=      5-min Rain = 0
KWE2 262051Z 16018KT 26/19 A2996 RMK A01 T02590190  RH  066%=      5-min Rain = 0
KWE2 262052Z 15018KT 26/19 A2996 RMK A01 T02590190  RH  066%=      5-min Rain = 0
KWE2 262053Z 15018G23KT 26/19 A2996 RMK A01 T02580191  RH  066%=      5-min Rain = 0
KWE2 262054Z 15021KT 26/19 A2995 RMK A01 T02590191  RH  066%=      5-min Rain = 0
KWE2 262055Z 14019KT 26/19 A2995 RMK A01 T02580191  RH  066%=      5-min Rain = 0
KWE2 262056Z 15019KT 26/19 A2995 RMK A01 T02580191  RH  067%=      5-min Rain = 0
KWE2 262057Z 14021KT 26/19 A2995 RMK A01 T02580191  RH  066%=      5-min Rain = 0
KWE2 262058Z 14019KT 26/19 A2995 RMK A01 T02580190  RH  066%=      5-min Rain = 0
KWE2 262059Z 16018KT 26/19 A2995 RMK A01 T02590190  RH  066%=      5-min Rain = 0
KWE2 262100Z 15018KT 26/19 A2995 RMK A01 T02590189  RH  065%=      5-min Rain = 0
KWE2 262101Z 15017G22KT 26/19 A2996 RMK A01 T02600190  RH  065%=      5-min Rain = 0
KWE2 262102Z 15019KT 26/19 A2996 RMK A01 T02600190  RH  065%=      5-min Rain = 0
KWE2 262103Z 16020KT 26/19 A2996 RMK A01 T02600191  RH  066%=      5-min Rain = 0
KWE2 262104Z 15021KT 26/19 A2996 RMK A01 T02590191  RH  066%=      5-min Rain = 0
KWE2 262105Z 16020KT 26/19 A2996 RMK A01 T02590191  RH  066%=      5-min Rain = 0
KWE2 262106Z 16022KT 26/19 A2996 RMK A01 T02590190  RH  066%=      5-min Rain = 0
KWE2 262107Z 15019KT 26/19 A2996 RMK A01 T02580190  RH  066%=      5-min Rain = 0
KWE2 262108Z 15019KT 26/19 A2996 RMK A01 T02580191  RH  067%=      5-min Rain = 0
KWE2 262109Z 16018KT 26/19 A2996 RMK A01 T02570191  RH  067%=      5-min Rain = 0
KWE2 262110Z 15019KT 26/19 A2996 RMK A01 T02580191  RH  066%=      5-min Rain = 0
KWE2 262111Z 15021KT 26/19 A2996 RMK A01 T02590190  RH  066%=      5-min Rain = 0
KWE2 262112Z 15019KT 26/19 A2996 RMK A01 T02580190  RH  066%=      5-min Rain = 0
KWE2 262113Z 16017KT 26/19 A2996 RMK A01 T02580191  RH  066%=      5-min Rain = 0
KWE2 262114Z 16018KT 26/19 A2996 RMK A01 T02580190  RH  066%=      5-min Rain = 0
KWE2 262115Z 16021KT 26/19 A2996 RMK A01 T02580189  RH  066%=      5-min Rain = 0
KWE2 262116Z 17022KT 26/19 A2996 RMK A01 T02580190  RH  066%=      5-min Rain = 0
KWE2 262117Z 17020KT 26/19 A2997 RMK A01 T02570190  RH  066%=      5-min Rain = 0
KWE2 262118Z 17019KT 26/19 A2997 RMK A01 T02570190  RH  066%=      5-min Rain = 0
KWE2 262119Z 17020KT 26/19 A2997 RMK A01 T02580190  RH  066%=      5-min Rain = 0
KWE2 262120Z 17021KT 26/19 A2997 RMK A01 T02580190  RH  066%=      5-min Rain = 0
KWE2 262121Z 16021KT 26/19 A2997 RMK A01 T02570189  RH  066%=      5-min Rain = 0
KWE2 262122Z 16022KT 26/19 A2997 RMK A01 T02570190  RH  066%=      5-min Rain = 0
KWE2 262123Z 16020KT 26/19 A2997 RMK A01 T02570189  RH  066%=      5-min Rain = 0
KWE2 262124Z 16019KT 26/19 A2997 RMK A01 T02560189  RH  066%=      5-min Rain = 0
KWE2 262125Z 16022KT 26/19 A2997 RMK A01 T02570189  RH  066%=      5-min Rain = 0
KWE2 262126Z 16021KT 26/19 A2997 RMK A01 T02560189  RH  066%=      5-min Rain = 0
KWE2 262127Z 16021KT 26/19 A2997 RMK A01 T02560189  RH  066%=      5-min Rain = 0
KWE2 262128Z 16022KT 26/19 A2997 RMK A01 T02560189  RH  066%=      5-min Rain = 0
KWE2 262129Z 16022KT 26/19 A2996 RMK A01 T02560189  RH  066%=      5-min Rain = 0
KWE2 262130Z 16019KT 26/19 A2996 RMK A01 T02550189  RH  067%=      5-min Rain = 0
KWE2 262131Z 16021KT 26/19 A2996 RMK A01 T02560189  RH  067%=      5-min Rain = 0
KWE2 262132Z 16020KT 26/19 A2996 RMK A01 T02550189  RH  067%=      5-min Rain = 0
KWE2 262133Z 16021KT 26/19 A2996 RMK A01 T02560189  RH  067%=      5-min Rain = 0
KWE2 262134Z 16019KT 26/19 A2996 RMK A01 T02560189  RH  067%=      5-min Rain = 0
KWE2 262135Z 17020KT 26/19 A2996 RMK A01 T02570189  RH  066%=      5-min Rain = 0
KWE2 262136Z 17018KT 26/19 A2996 RMK A01 T02570189  RH  066%=      5-min Rain = 0
KWE2 262137Z 17018KT 26/19 A2996 RMK A01 T02570190  RH  066%=      5-min Rain = 0
KWE2 262138Z 17019KT 26/19 A2996 RMK A01 T02570190  RH  066%=      5-min Rain = 0
KWE2 262139Z 16022KT 26/19 A2996 RMK A01 T02570190  RH  066%=      5-min Rain = 0
KWE2 262140Z 16022KT 26/19 A2996 RMK A01 T02570189  RH  066%=      5-min Rain = 0
KWE2 262141Z 16019KT 26/19 A2996 RMK A01 T02560189  RH  067%=      5-min Rain = 0
KWE2 262142Z 17020KT 26/19 A2996 RMK A01 T02560190  RH  067%=      5-min Rain = 0
KWE2 262143Z 16018KT 26/19 A2996 RMK A01 T02560190  RH  067%=      5-min Rain = 0
KWE2 262144Z 16021G26KT 26/19 A2995 RMK A01 T02560189  RH  067%=      5-min Rain = 0
KWE2 262145Z 17021KT 26/19 A2995 RMK A01 T02570189  RH  066%=      5-min Rain = 0
KWE2 262146Z 17019KT 26/19 A2995 RMK A01 T02560189  RH  066%=      5-min Rain = 0
KWE2 262147Z 17019KT 26/19 A2995 RMK A01 T02570190  RH  067%=      5-min Rain = 0
KWE2 262148Z 17018KT 26/19 A2995 RMK A01 T02570191  RH  067%=      5-min Rain = 0
KWE2 262149Z 17020KT 26/19 A2995 RMK A01 T02560190  RH  067%=      5-min Rain = 0
KWE2 262150Z 17018KT 26/19 A2995 RMK A01 T02560190  RH  067%=      5-min Rain = 0
KWE2 262151Z 17021KT 26/19 A2994 RMK A01 T02560190  RH  067%=      5-min Rain = 0
KWE2 262152Z 17021KT 26/19 A2994 RMK A01 T02560190  RH  067%=      5-min Rain = 0
KWE2 262153Z 17020KT 26/19 A2994 RMK A01 T02550190  RH  067%=      5-min Rain = 0
KWE2 262154Z 16021KT 26/19 A2994 RMK A01 T02550190  RH  067%=      5-min Rain = 0
KWE2 262155Z 16023KT 26/19 A2993 RMK A01 T02550189  RH  067%=      5-min Rain = 0
KWE2 262156Z 17021KT 26/19 A2993 RMK A01 T02550189  RH  067%=      5-min Rain = 0
KWE2 262157Z 16021KT 26/19 A2993 RMK A01 T02550189  RH  067%=      5-min Rain = 0
KWE2 262158Z 17020KT 26/19 A2993 RMK A01 T02550189  RH  067%=      5-min Rain = 0
KWE2 262159Z 16018KT 26/19 A2993 RMK A01 T02550190  RH  067%=      5-min Rain = 0
KWE2 262200Z 16020KT 26/19 A2993 RMK A01 T02560190  RH  067%=      5-min Rain = 0
KWE2 262201Z 15020KT 26/19 A2993 RMK A01 T02560190  RH  067%=      5-min Rain = 0
KWE2 262202Z 16019KT 26/19 A2993 RMK A01 T02560190  RH  067%=      5-min Rain = 0
KWE2 262203Z 15021KT 26/19 A2992 RMK A01 T02570189  RH  066%=      5-min Rain = 0
KWE2 262204Z 15021KT 26/19 A2992 RMK A01 T02560189  RH  066%=      5-min Rain = 0
KWE2 262205Z 15019KT 26/19 A2992 RMK A01 T02560189  RH  066%=      5-min Rain = 0
KWE2 262206Z 14020KT 26/19 A2991 RMK A01 T02560188  RH  066%=      5-min Rain = 0
KWE2 262207Z 14020KT 26/19 A2991 RMK A01 T02550188  RH  066%=      5-min Rain = 0
KWE2 262208Z 15020KT 26/19 A2991 RMK A01 T02560188  RH  066%=      5-min Rain = 0
KWE2 262209Z 15022KT 26/19 A2991 RMK A01 T02560188  RH  066%=      5-min Rain = 0
KWE2 262210Z 15019KT 26/19 A2991 RMK A01 T02560189  RH  066%=      5-min Rain = 0
KWE2 262211Z 15018KT 26/19 A299 RMK A01 T02560190  RH  067%=      5-min Rain = 0
KWE2 262212Z 15016KT 26/19 A299 RMK A01 T02560190  RH  067%=      5-min Rain = 0
KWE2 262213Z 15019KT 26/19 A299 RMK A01 T02570191  RH  067%=      5-min Rain = 0
KWE2 262214Z 15019KT 26/19 A299 RMK A01 T02580190  RH  066%=      5-min Rain = 0
KWE2 262215Z 15023KT 26/19 A299 RMK A01 T02580189  RH  066%=      5-min Rain = 0
KWE2 262216Z 14020G25KT 26/19 A299 RMK A01 T02580190  RH  066%=      5-min Rain = 0
KWE2 262217Z 14025KT 26/19 A2989 RMK A01 T02580190  RH  066%=      5-min Rain = 0
KWE2 262218Z 14022KT 26/19 A2989 RMK A01 T02580190  RH  066%=      5-min Rain = 0
KWE2 262219Z 14024KT 26/19 A2988 RMK A01 T02580190  RH  066%=      5-min Rain = 0
KWE2 262220Z 14019KT 26/19 A2988 RMK A01 T02580190  RH  066%=      5-min Rain = 0
KWE2 262221Z 14023KT 26/19 A2988 RMK A01 T02590191  RH  066%=      5-min Rain = 0
KWE2 262222Z 14027KT 26/19 A2988 RMK A01 T02600191  RH  066%=      5-min Rain = 0
KWE2 262223Z 14025KT 26/19 A2989 RMK A01 T02590191  RH  066%=      5-min Rain = 0
KWE2 262224Z 14027KT 26/19 A2989 RMK A01 T02590191  RH  066%=      5-min Rain = 0
KWE2 262225Z 15028KT 26/19 A2989 RMK A01 T02580190  RH  066%=      5-min Rain = 0
KWE2 262226Z 14026KT 26/19 A2989 RMK A01 T02580190  RH  066%=      5-min Rain = 0
KWE2 262227Z 15025KT 26/19 A299 RMK A01 T02570190  RH  066%=      5-min Rain = 0
KWE2 262228Z 15027KT 26/19 A299 RMK A01 T02570190  RH  066%=      5-min Rain = 0
KWE2 262229Z 15026G31KT 26/19 A2989 RMK A01 T02570190  RH  066%=      5-min Rain = 0
KWE2 262230Z 15025KT 26/19 A2989 RMK A01 T02570190  RH  066%=      5-min Rain = 0
KWE2 262231Z 15024KT 26/19 A2988 RMK A01 T02570189  RH  066%=      5-min Rain = 0
KWE2 262232Z 15025KT 26/19 A2988 RMK A01 T02570189  RH  066%=      5-min Rain = 0
KWE2 262233Z 14025KT 26/19 A2988 RMK A01 T02570189  RH  066%=      5-min Rain = 0
KWE2 262234Z 14025KT 26/19 A2987 RMK A01 T02570189  RH  066%=      5-min Rain = 0
KWE2 262235Z 14028KT 26/19 A2987 RMK A01 T02580189  RH  066%=      5-min Rain = 0
KWE2 262236Z 14024KT 26/19 A2987 RMK A01 T02580189  RH  066%=      5-min Rain = 0
KWE2 262237Z 15023G28KT 26/19 A2987 RMK A01 T02600190  RH  065%=      5-min Rain = 0
KWE2 262238Z 15026KT 26/19 A2987 RMK A01 T02620190  RH  065%=      5-min Rain = 0
KWE2 262239Z 15026KT 26/19 A2987 RMK A01 T02620189  RH  064%=      5-min Rain = 0
KWE2 262240Z 15025KT 26/19 A2988 RMK A01 T02620189  RH  064%=      5-min Rain = 0
KWE2 262241Z 15026KT 26/19 A2987 RMK A01 T02620189  RH  064%=      5-min Rain = 0
KWE2 262242Z 15025KT 26/19 A2987 RMK A01 T02630188  RH  063%=      5-min Rain = 0
KWE2 262243Z 15024KT 26/19 A2987 RMK A01 T02620188  RH  063%=      5-min Rain = 0
KWE2 262244Z 14023G28KT 26/19 A2987 RMK A01 T02630188  RH  064%=      5-min Rain = 0
KWE2 262245Z 14022KT 26/19 A2987 RMK A01 T02620188  RH  064%=      5-min Rain = 0
KWE2 262246Z 14020KT 26/19 A2987 RMK A01 T02620188  RH  064%=      5-min Rain = 0
KWE2 262247Z 15023KT 26/19 A2988 RMK A01 T02630188  RH  063%=      5-min Rain = 0
KWE2 262248Z 15022KT 26/19 A2988 RMK A01 T02630188  RH  063%=      5-min Rain = 0
KWE2 262249Z 15023KT 26/19 A2988 RMK A01 T02630189  RH  064%=      5-min Rain = 0
KWE2 262250Z 15021KT 26/19 A2989 RMK A01 T02620189  RH  064%=      5-min Rain = 0
KWE2 262251Z 16024KT 26/19 A2989 RMK A01 T02620189  RH  064%=      5-min Rain = 0
KWE2 262252Z 15022KT 26/19 A2989 RMK A01 T02620190  RH  064%=      5-min Rain = 0
KWE2 262253Z 15026KT 26/19 A2989 RMK A01 T02620189  RH  064%=      5-min Rain = 0
KWE2 262254Z 15025KT 26/19 A2989 RMK A01 T02620189  RH  064%=      5-min Rain = 0
KWE2 262255Z 15023G28KT 26/19 A2989 RMK A01 T02620190  RH  064%=      5-min Rain = 0
KWE2 262256Z 15026KT 26/19 A2989 RMK A01 T02620189  RH  064%=      5-min Rain = 0
KWE2 262257Z 16023KT 26/19 A299 RMK A01 T02610189  RH  064%=      5-min Rain = 0
KWE2 262258Z 15021KT 26/19 A299 RMK A01 T02610189  RH  065%=      5-min Rain = 0
KWE2 262259Z 15022G27KT 26/19 A299 RMK A01 T02610189  RH  064%=      5-min Rain = 0
KWE2 262300Z 15024KT 26/19 A299 RMK A01 T02620189  RH  064%=      5-min Rain = 0
KWE2 262301Z 15022KT 26/19 A299 RMK A01 T02620190  RH  064%=      5-min Rain = 0
KWE2 262302Z 16021KT 26/19 A299 RMK A01 T02620190  RH  065%=      5-min Rain = 0
KWE2 262303Z 16023KT 26/19 A299 RMK A01 T02620190  RH  064%=      5-min Rain = 0
KWE2 262304Z 16023G28KT 26/19 A299 RMK A01 T02620190  RH  064%=      5-min Rain = 0
KWE2 262305Z 16021KT 26/19 A299 RMK A01 T02620191  RH  065%=      5-min Rain = 0
KWE2 262306Z 15022KT 26/19 A299 RMK A01 T02620191  RH  065%=      5-min Rain = 0
KWE2 262307Z 16022KT 26/19 A299 RMK A01 T02640191  RH  064%=      5-min Rain = 0
KWE2 262308Z 15021KT 27/19 A299 RMK A01 T02650191  RH  064%=      5-min Rain = 0
KWE2 262309Z 15020KT 27/19 A299 RMK A01 T02660192  RH  064%=      5-min Rain = 0
KWE2 262310Z 15022KT 27/19 A299 RMK A01 T02680191  RH  063%=      5-min Rain = 0
KWE2 262311Z 15021KT 27/19 A299 RMK A01 T02680191  RH  063%=      5-min Rain = 0
KWE2 262312Z 14022KT 27/19 A299 RMK A01 T02670191  RH  063%=      5-min Rain = 0
KWE2 262313Z 15021KT 27/19 A2991 RMK A01 T02660191  RH  063%=      5-min Rain = 0
KWE2 262314Z 16021KT 27/19 A2991 RMK A01 T02650191  RH  064%=      5-min Rain = 0
KWE2 262315Z 15020KT 27/19 A2991 RMK A01 T02650190  RH  064%=      5-min Rain = 0
KWE2 262316Z 16020G25KT 26/19 A2991 RMK A01 T02640190  RH  064%=      5-min Rain = 0
KWE2 262317Z 16017KT 26/19 A2992 RMK A01 T02640190  RH  064%=      5-min Rain = 0
KWE2 262318Z 17017KT 26/19 A2992 RMK A01 T02640191  RH  064%=      5-min Rain = 0
KWE2 262319Z 17020KT 27/19 A2992 RMK A01 T02650191  RH  064%=      5-min Rain = 0
KWE2 262320Z 17020KT 27/19 A2992 RMK A01 T02650191  RH  064%=      5-min Rain = 0
KWE2 262321Z 17020KT 26/19 A2992 RMK A01 T02630190  RH  064%=      5-min Rain = 0
KWE2 262322Z 17018KT 26/19 A2992 RMK A01 T02620190  RH  065%=      5-min Rain = 0
KWE2 262323Z 17019KT 26/19 A2992 RMK A01 T02620190  RH  065%=      5-min Rain = 0
KWE2 262324Z 17021KT 26/19 A2992 RMK A01 T02620189  RH  064%=      5-min Rain = 0
KWE2 262325Z 17018KT 26/19 A2992 RMK A01 T02610189  RH  065%=      5-min Rain = 0
KWE2 262326Z 17021KT 26/19 A2992 RMK A01 T02620189  RH  064%=      5-min Rain = 0
KWE2 262327Z 16021KT 26/19 A2992 RMK A01 T02610189  RH  065%=      5-min Rain = 0
KWE2 262328Z 17019KT 26/19 A2992 RMK A01 T02600189  RH  065%=      5-min Rain = 0
KWE2 262329Z 17019KT 26/19 A2992 RMK A01 T02600189  RH  065%=      5-min Rain = 0
KWE2 262330Z 16020KT 26/19 A2992 RMK A01 T02610189  RH  065%=      5-min Rain = 0
KWE2 262331Z 17021KT 26/19 A2992 RMK A01 T02610189  RH  064%=      5-min Rain = 0
KWE2 262332Z 17017KT 26/19 A2992 RMK A01 T02610190  RH  065%=      5-min Rain = 0
KWE2 262333Z 16020KT 26/19 A2992 RMK A01 T02610190  RH  065%=      5-min Rain = 0
KWE2 262334Z 17021KT 26/19 A2992 RMK A01 T02620189  RH  064%=      5-min Rain = 0
KWE2 262335Z 17020KT 26/19 A2992 RMK A01 T02620189  RH  064%=      5-min Rain = 0
KWE2 262336Z 16020KT 26/19 A2992 RMK A01 T02620187  RH  063%=      5-min Rain = 0
KWE2 262337Z 16021KT 26/19 A2992 RMK A01 T02640188  RH  063%=      5-min Rain = 0
KWE2 262338Z 17022KT 27/19 A2992 RMK A01 T02670189  RH  062%=      5-min Rain = 0
KWE2 262339Z 17021KT 27/19 A2992 RMK A01 T02690189  RH  062%=      5-min Rain = 0
KWE2 262340Z 17023KT 27/19 A2991 RMK A01 T02690189  RH  061%=      5-min Rain = 0
KWE2 262341Z 17024KT 27/19 A2991 RMK A01 T02680189  RH  062%=      5-min Rain = 0
KWE2 262342Z 17022KT 27/19 A2991 RMK A01 T02670189  RH  062%=      5-min Rain = 0
KWE2 262343Z 17024KT 27/19 A2991 RMK A01 T02670188  RH  062%=      5-min Rain = 0
KWE2 262344Z 17022KT 27/19 A2991 RMK A01 T02670188  RH  062%=      5-min Rain = 0
KWE2 262345Z 17021KT 27/19 A2991 RMK A01 T02680189  RH  062%=      5-min Rain = 0
KWE2 262346Z 17021KT 27/19 A2991 RMK A01 T02710190  RH  061%=      5-min Rain = 0
KWE2 262347Z 17019KT 27/19 A2991 RMK A01 T02730191  RH  061%=      5-min Rain = 0
KWE2 262348Z 17018KT 28/19 A2991 RMK A01 T02750191  RH  060%=      5-min Rain = 0
KWE2 262349Z 16019KT 28/19 A2991 RMK A01 T02770192  RH  060%=      5-min Rain = 0
KWE2 262350Z 16020KT 28/19 A2991 RMK A01 T02780192  RH  059%=      5-min Rain = 0
KWE2 262351Z 17022KT 28/19 A2991 RMK A01 T02760191  RH  060%=      5-min Rain = 0
KWE2 262352Z 16022KT 27/19 A2991 RMK A01 T02740190  RH  060%=      5-min Rain = 0
KWE2 262353Z 17020KT 27/19 A2991 RMK A01 T02730190  RH  061%=      5-min Rain = 0
KWE2 262354Z 17018KT 27/19 A2991 RMK A01 T02730191  RH  061%=      5-min Rain = 0
KWE2 262355Z 16018KT 27/19 A2991 RMK A01 T02730192  RH  061%=      5-min Rain = 0
KWE2 262356Z 16021KT 27/19 A299 RMK A01 T02730191  RH  061%=      5-min Rain = 0
KWE2 262357Z 16019KT 27/19 A299 RMK A01 T02730191  RH  061%=      5-min Rain = 0
KWE2 262358Z 17019KT 27/19 A299 RMK A01 T02730191  RH  061%=      5-min Rain = 0
KWE2 262359Z 17020G25KT 28/19 A299 RMK A01 T02750191  RH  060%=      5-min Rain = 0
KWE2 270000Z 17022KT 28/19 A299 RMK A01 T02750191  RH  060%=      5-min Rain = 0
KWE2 270001Z 17023KT 28/19 A299 RMK A01 T02750191  RH  060%=      5-min Rain = 0
KWE2 270002Z 17023KT 27/19 A299 RMK A01 T02740189  RH  060%=      5-min Rain = 0
KWE2 270003Z 16021KT 27/19 A299 RMK A01 T02710189  RH  061%=      5-min Rain = 0
KWE2 270004Z 17019KT 27/19 A299 RMK A01 T02690190  RH  062%=      5-min Rain = 0
KWE2 270005Z 17019KT 27/19 A299 RMK A01 T02690190  RH  062%=      5-min Rain = 0
KWE2 270006Z 16019KT 27/19 A299 RMK A01 T02690190  RH  062%=      5-min Rain = 0
KWE2 270007Z 17020KT 27/19 A299 RMK A01 T02690190  RH  062%=      5-min Rain = 0
KWE2 270008Z 16019KT 27/19 A299 RMK A01 T02690190  RH  062%=      5-min Rain = 0
KWE2 270009Z 16021KT 27/19 A299 RMK A01 T02700190  RH  062%=      5-min Rain = 0
KWE2 270010Z 16023KT 27/19 A299 RMK A01 T02690189  RH  061%=      5-min Rain = 0
KWE2 270011Z 16021KT 27/19 A299 RMK A01 T02690189  RH  061%=      5-min Rain = 0
KWE2 270012Z 17021KT 27/19 A299 RMK A01 T02690189  RH  061%=      5-min Rain = 0
KWE2 270013Z 17019KT 27/19 A299 RMK A01 T02690189  RH  061%=      5-min Rain = 0
KWE2 270014Z 17023KT 27/19 A299 RMK A01 T02690189  RH  062%=      5-min Rain = 0
KWE2 270015Z 16021KT 27/19 A299 RMK A01 T02670188  RH  062%=      5-min Rain = 0
KWE2 270016Z 16021KT 27/19 A299 RMK A01 T02670189  RH  062%=      5-min Rain = 0
KWE2 270017Z 16018KT 27/19 A299 RMK A01 T02680189  RH  062%=      5-min Rain = 0
KWE2 270018Z 16022KT 27/19 A299 RMK A01 T02690189  RH  061%=      5-min Rain = 0
KWE2 270019Z 15023KT 27/19 A299 RMK A01 T02690188  RH  061%=      5-min Rain = 0
KWE2 270020Z 16023KT 27/19 A299 RMK A01 T02670188  RH  062%=      5-min Rain = 0
KWE2 270021Z 16023KT 27/19 A2989 RMK A01 T02660187  RH  062%=      5-min Rain = 0
KWE2 270022Z 16024KT 27/19 A2989 RMK A01 T02660187  RH  062%=      5-min Rain = 0
KWE2 270023Z 16024KT 27/19 A2989 RMK A01 T02660187  RH  062%=      5-min Rain = 0
KWE2 270024Z 16023KT 27/19 A2989 RMK A01 T02650186  RH  062%=      5-min Rain = 0
KWE2 270025Z 16022KT 27/19 A2989 RMK A01 T02650186  RH  062%=      5-min Rain = 0
KWE2 270026Z 17023KT 27/19 A2989 RMK A01 T02660186  RH  062%=      5-min Rain = 0
KWE2 270027Z 16025KT 27/19 A2989 RMK A01 T02650185  RH  061%=      5-min Rain = 0
KWE2 270028Z 16021KT 27/19 A2989 RMK A01 T02660185  RH  061%=      5-min Rain = 0
KWE2 270029Z 17025KT 27/19 A2988 RMK A01 T02660185  RH  061%=      5-min Rain = 0
KWE2 270030Z 16026KT 27/18 A2988 RMK A01 T02660184  RH  061%=      5-min Rain = 0
KWE2 270031Z 17024KT 27/19 A2988 RMK A01 T02660185  RH  061%=      5-min Rain = 0
KWE2 270032Z 16023KT 27/18 A2988 RMK A01 T02650184  RH  061%=      5-min Rain = 0
KWE2 270033Z 17025KT 27/18 A2988 RMK A01 T02660184  RH  061%=      5-min Rain = 0
KWE2 270034Z 17025KT 27/18 A2988 RMK A01 T02650184  RH  061%=      5-min Rain = 0
KWE2 270035Z 16024KT 27/18 A2988 RMK A01 T02650184  RH  061%=      5-min Rain = 0
KWE2 270036Z 16023KT 27/18 A2988 RMK A01 T02650184  RH  061%=      5-min Rain = 0
KWE2 270037Z 17023KT 26/18 A2988 RMK A01 T02640184  RH  061%=      5-min Rain = 0
KWE2 270038Z 17024KT 26/19 A2988 RMK A01 T02640185  RH  062%=      5-min Rain = 0
KWE2 270039Z 17023KT 26/19 A2988 RMK A01 T02640185  RH  062%=      5-min Rain = 0
KWE2 270040Z 17021KT 26/19 A2988 RMK A01 T02640185  RH  062%=      5-min Rain = 0
KWE2 270041Z 16021KT 26/19 A2988 RMK A01 T02640185  RH  062%=      5-min Rain = 0
KWE2 270042Z 16019KT 26/19 A2988 RMK A01 T02640186  RH  062%=      5-min Rain = 0
KWE2 270043Z 16018KT 26/19 A2988 RMK A01 T02640187  RH  063%=      5-min Rain = 0
KWE2 270044Z 16018KT 26/19 A2988 RMK A01 T02640187  RH  063%=      5-min Rain = 0
KWE2 270045Z 16021KT 26/19 A2988 RMK A01 T02640187  RH  063%=      5-min Rain = 0
KWE2 270046Z 16018KT 26/19 A2988 RMK A01 T02630187  RH  063%=      5-min Rain = 0
KWE2 270047Z 16018KT 26/19 A2988 RMK A01 T02630187  RH  063%=      5-min Rain = 0
KWE2 270048Z 16018KT 26/19 A2988 RMK A01 T02630187  RH  063%=      5-min Rain = 0
KWE2 270049Z 16020G25KT 26/19 A2988 RMK A01 T02620187  RH  063%=      5-min Rain = 0
KWE2 270050Z 16023KT 26/19 A2988 RMK A01 T02620186  RH  063%=      5-min Rain = 0
KWE2 270051Z 16021KT 26/19 A2988 RMK A01 T02620186  RH  063%=      5-min Rain = 0
KWE2 270052Z 16019KT 26/19 A2988 RMK A01 T02620187  RH  063%=      5-min Rain = 0
KWE2 270053Z 16020KT 26/19 A2988 RMK A01 T02610187  RH  064%=      5-min Rain = 0
KWE2 270054Z 16019KT 26/19 A2988 RMK A01 T02610187  RH  064%=      5-min Rain = 0
KWE2 270055Z 16018KT 26/19 A2988 RMK A01 T02600187  RH  064%=      5-min Rain = 0
KWE2 270056Z 16018KT 26/19 A2987 RMK A01 T02600187  RH  064%=      5-min Rain = 0
KWE2 270057Z 16019KT 26/19 A2987 RMK A01 T02600187  RH  064%=      5-min Rain = 0
KWE2 270058Z 16022KT 26/19 A2987 RMK A01 T02590186  RH  064%=      5-min Rain = 0
KWE2 270059Z 16023KT 26/19 A2987 RMK A01 T02590186  RH  064%=      5-min Rain = 0
KWE2 270100Z 16022KT 26/19 A2987 RMK A01 T02590185  RH  064%=      5-min Rain = 0
KWE2 270101Z 16022KT 26/19 A2987 RMK A01 T02590185  RH  064%=      5-min Rain = 0
KWE2 270102Z 16018KT 26/19 A2987 RMK A01 T02580186  RH  064%=      5-min Rain = 0
KWE2 270103Z 16018KT 26/19 A2987 RMK A01 T02580186  RH  065%=      5-min Rain = 0
KWE2 270104Z 16022KT 26/19 A2987 RMK A01 T02580186  RH  065%=      5-min Rain = 0
KWE2 270105Z 16021G26KT 26/19 A2987 RMK A01 T02570186  RH  065%=      5-min Rain = 0
KWE2 270106Z 16023KT 26/19 A2986 RMK A01 T02570185  RH  065%=      5-min Rain = 0
KWE2 270107Z 16022KT 26/19 A2986 RMK A01 T02560185  RH  065%=      5-min Rain = 0
KWE2 270108Z 16026KT 26/19 A2986 RMK A01 T02560185  RH  065%=      5-min Rain = 0
KWE2 270109Z 16025KT 26/19 A2986 RMK A01 T02550185  RH  065%=      5-min Rain = 0
KWE2 270110Z 16024KT 26/19 A2986 RMK A01 T02550185  RH  065%=      5-min Rain = 0
KWE2 270111Z 16024G29KT 26/19 A2986 RMK A01 T02550185  RH  065%=      5-min Rain = 0
KWE2 270112Z 16023KT 26/19 A2986 RMK A01 T02550185  RH  065%=      5-min Rain = 0
KWE2 270113Z 16023G28KT 25/19 A2986 RMK A01 T02540185  RH  065%=      5-min Rain = 0
KWE2 270114Z 16026KT 25/19 A2986 RMK A01 T02540185  RH  065%=      5-min Rain = 0
KWE2 270115Z 16025KT 25/19 A2986 RMK A01 T02540185  RH  065%=      5-min Rain = 0
KWE2 270116Z 16023KT 25/18 A2986 RMK A01 T02540184  RH  065%=      5-min Rain = 0
KWE2 270117Z 16027KT 25/19 A2986 RMK A01 T02540185  RH  066%=      5-min Rain = 0
KWE2 270118Z 16026KT 25/18 A2986 RMK A01 T02530184  RH  066%=      5-min Rain = 0
KWE2 270119Z 16024KT 25/18 A2986 RMK A01 T02530184  RH  066%=      5-min Rain = 0
KWE2 270120Z 16024KT 25/18 A2986 RMK A01 T02530184  RH  066%=      5-min Rain = 0
KWE2 270121Z 16026KT 25/18 A2986 RMK A01 T02520184  RH  066%=      5-min Rain = 0
KWE2 270122Z 16025KT 25/18 A2986 RMK A01 T02520184  RH  066%=      5-min Rain = 0
KWE2 270123Z 16025G30KT 25/18 A2986 RMK A01 T02520184  RH  066%=      5-min Rain = 0
KWE2 270124Z 16024KT 25/18 A2986 RMK A01 T02510184  RH  066%=      5-min Rain = 0
KWE2 270125Z 16022KT 25/18 A2986 RMK A01 T02510184  RH  067%=      5-min Rain = 0
KWE2 270126Z 16022KT 25/19 A2986 RMK A01 T02510185  RH  067%=      5-min Rain = 0
KWE2 270127Z 15025KT 25/18 A2986 RMK A01 T02500184  RH  067%=      5-min Rain = 0
KWE2 270128Z 15024KT 25/19 A2986 RMK A01 T02500185  RH  067%=      5-min Rain = 0
KWE2 270129Z 15023KT 25/18 A2986 RMK A01 T02500184  RH  067%=      5-min Rain = 0
KWE2 270130Z 16024KT 25/19 A2987 RMK A01 T02500185  RH  067%=      5-min Rain = 0
KWE2 270131Z 16022KT 25/18 A2987 RMK A01 T02490184  RH  067%=      5-min Rain = 0
KWE2 270132Z 16023KT 25/19 A2987 RMK A01 T02490185  RH  067%=      5-min Rain = 0
KWE2 270133Z 16023KT 25/18 A2987 RMK A01 T02490184  RH  067%=      5-min Rain = 0
KWE2 270134Z 16021KT 25/19 A2987 RMK A01 T02490185  RH  068%=      5-min Rain = 0
KWE2 270135Z 16021KT 25/18 A2987 RMK A01 T02480184  RH  068%=      5-min Rain = 0
KWE2 270136Z 16022KT 25/18 A2987 RMK A01 T02480184  RH  068%=      5-min Rain = 0
KWE2 270137Z 16020KT 25/18 A2987 RMK A01 T02470184  RH  068%=      5-min Rain = 0
KWE2 270138Z 16018KT 25/18 A2987 RMK A01 T02470184  RH  068%=      5-min Rain = 0
KWE2 270139Z 16020KT 25/18 A2987 RMK A01 T02460184  RH  068%=      5-min Rain = 0
KWE2 270140Z 16018KT 25/18 A2987 RMK A01 T02460184  RH  068%=      5-min Rain = 0
KWE2 270141Z 16020KT 25/18 A2987 RMK A01 T02460184  RH  069%=      5-min Rain = 0
KWE2 270142Z 16020KT 25/18 A2987 RMK A01 T02460184  RH  069%=      5-min Rain = 0
KWE2 270143Z 16020KT 25/18 A2987 RMK A01 T02450184  RH  069%=      5-min Rain = 0
KWE2 270144Z 16022KT 25/18 A2987 RMK A01 T02450183  RH  068%=      5-min Rain = 0
KWE2 270145Z 16023KT 25/18 A2987 RMK A01 T02450183  RH  068%=      5-min Rain = 0
KWE2 270146Z 16021KT 25/18 A2987 RMK A01 T02450183  RH  068%=      5-min Rain = 0
KWE2 270147Z 16021KT 25/18 A2987 RMK A01 T02460183  RH  068%=      5-min Rain = 0
KWE2 270148Z 16020KT 25/18 A2987 RMK A01 T02450183  RH  068%=      5-min Rain = 0
KWE2 270149Z 16022KT 25/18 A2987 RMK A01 T02450183  RH  068%=      5-min Rain = 0
KWE2 270150Z 16019KT 25/18 A2987 RMK A01 T02450183  RH  068%=      5-min Rain = 0
KWE2 270151Z 16022KT 24/18 A2987 RMK A01 T02440183  RH  069%=      5-min Rain = 0
KWE2 270152Z 16021KT 24/18 A2987 RMK A01 T02440183  RH  069%=      5-min Rain = 0
KWE2 270153Z 16022KT 24/18 A2987 RMK A01 T02440183  RH  069%=      5-min Rain = 0
KWE2 270154Z 16020KT 24/18 A2987 RMK A01 T02440182  RH  068%=      5-min Rain = 0
KWE2 270155Z 16020KT 24/18 A2987 RMK A01 T02440182  RH  069%=      5-min Rain = 0
KWE2 270156Z 16020G25KT 24/18 A2987 RMK A01 T02440183  RH  069%=      5-min Rain = 0
KWE2 270157Z 16021KT 24/18 A2987 RMK A01 T02430183  RH  069%=      5-min Rain = 0
KWE2 270158Z 16019KT 24/18 A2987 RMK A01 T02430183  RH  069%=      5-min Rain = 0
KWE2 270159Z 16019G24KT 24/18 A2987 RMK A01 T02430183  RH  069%=      5-min Rain = 0
KWE2 270200Z 15020KT 24/18 A2987 RMK A01 T02420182  RH  069%=      5-min Rain = 0
KWE2 270201Z 16021KT 24/18 A2988 RMK A01 T02420182  RH  069%=      5-min Rain = 0
KWE2 270202Z 16021KT 24/18 A2987 RMK A01 T02420182  RH  069%=      5-min Rain = 0
KWE2 270203Z 16020KT 24/18 A2987 RMK A01 T02420183  RH  069%=      5-min Rain = 0
KWE2 270204Z 16021KT 24/18 A2987 RMK A01 T02420182  RH  069%=      5-min Rain = 0
KWE2 270205Z 16021KT 24/18 A2987 RMK A01 T02420182  RH  069%=      5-min Rain = 0
KWE2 270206Z 16022KT 24/18 A2987 RMK A01 T02420183  RH  070%=      5-min Rain = 0
KWE2 270207Z 16020KT 24/18 A2987 RMK A01 T02410183  RH  070%=      5-min Rain = 0
KWE2 270208Z 16022KT 24/18 A2987 RMK A01 T02410183  RH  070%=      5-min Rain = 0
KWE2 270209Z 16021KT 24/18 A2987 RMK A01 T02420183  RH  070%=      5-min Rain = 0
KWE2 270210Z 16022KT 24/18 A2987 RMK A01 T02410183  RH  070%=      5-min Rain = 0
KWE2 270211Z 16021KT 24/18 A2987 RMK A01 T02410183  RH  070%=      5-min Rain = 0
KWE2 270212Z 16021KT 24/18 A2987 RMK A01 T02400183  RH  070%=      5-min Rain = 0
KWE2 270213Z 16020KT 24/18 A2987 RMK A01 T02400183  RH  070%=      5-min Rain = 0
KWE2 270214Z 16020KT 24/18 A2987 RMK A01 T02400183  RH  070%=      5-min Rain = 0
KWE2 270215Z 16019KT 24/18 A2987 RMK A01 T02400183  RH  071%=      5-min Rain = 0
KWE2 270216Z 16023G28KT 24/18 A2987 RMK A01 T02390183  RH  071%=      5-min Rain = 0
KWE2 270217Z 17022KT 24/18 A2987 RMK A01 T02390183  RH  071%=      5-min Rain = 0
KWE2 270218Z 17022KT 24/18 A2987 RMK A01 T02400183  RH  070%=      5-min Rain = 0
KWE2 270219Z 17022KT 24/18 A2987 RMK A01 T02400183  RH  070%=      5-min Rain = 0
KWE2 270220Z 17020KT 24/18 A2988 RMK A01 T02400182  RH  070%=      5-min Rain = 0
KWE2 270221Z 17019KT 24/18 A2987 RMK A01 T02400183  RH  070%=      5-min Rain = 0
KWE2 270222Z 17021KT 24/18 A2988 RMK A01 T02400182  RH  070%=      5-min Rain = 0
KWE2 270223Z 17019KT 24/18 A2988 RMK A01 T02390183  RH  070%=      5-min Rain = 0
KWE2 270224Z 17021G26KT 24/18 A2987 RMK A01 T02390182  RH  071%=      5-min Rain = 0
KWE2 270225Z 17020G25KT 24/18 A2988 RMK A01 T02390182  RH  070%=      5-min Rain = 0
KWE2 270226Z 16019KT 24/18 A2988 RMK A01 T02390182  RH  070%=      5-min Rain = 0
KWE2 270227Z 17021KT 24/18 A2988 RMK A01 T02390182  RH  070%=      5-min Rain = 0
KWE2 270228Z 17020KT 24/18 A2988 RMK A01 T02390182  RH  070%=      5-min Rain = 0
KWE2 270229Z 16020KT 24/18 A2988 RMK A01 T02390182  RH  070%=      5-min Rain = 0
KWE2 270230Z 17021KT 24/18 A2987 RMK A01 T02380181  RH  070%=      5-min Rain = 0
KWE2 270231Z 17022KT 24/18 A2987 RMK A01 T02380181  RH  070%=      5-min Rain = 0
KWE2 270232Z 17022KT 24/18 A2988 RMK A01 T02390181  RH  070%=      5-min Rain = 0
KWE2 270233Z 16020KT 24/18 A2988 RMK A01 T02390181  RH  070%=      5-min Rain = 0
KWE2 270234Z 16020KT 24/18 A2988 RMK A01 T02390181  RH  070%=      5-min Rain = 0
KWE2 270235Z 17021KT 24/18 A2988 RMK A01 T02390181  RH  070%=      5-min Rain = 0
KWE2 270236Z 16019G25KT 24/18 A2988 RMK A01 T02380180  RH  070%=      5-min Rain = 0
KWE2 270237Z 17023KT 24/18 A2988 RMK A01 T02380180  RH  070%=      5-min Rain = 0
KWE2 270238Z 17021KT 24/18 A2988 RMK A01 T02380180  RH  070%=      5-min Rain = 0
KWE2 270239Z 17020KT 24/18 A2988 RMK A01 T02380179  RH  070%=      5-min Rain = 0
KWE2 270240Z 17021KT 24/18 A2988 RMK A01 T02380179  RH  070%=      5-min Rain = 0
KWE2 270241Z 17020KT 24/18 A2988 RMK A01 T02380179  RH  070%=      5-min Rain = 0
KWE2 270242Z 17021KT 24/18 A2988 RMK A01 T02370179  RH  070%=      5-min Rain = 0
KWE2 270243Z 17020KT 24/18 A2988 RMK A01 T02370179  RH  070%=      5-min Rain = 0
KWE2 270244Z 17019KT 24/18 A2988 RMK A01 T02370179  RH  070%=      5-min Rain = 0
KWE2 270245Z 17019KT 24/18 A2988 RMK A01 T02360179  RH  070%=      5-min Rain = 0
KWE2 270246Z 17019KT 24/18 A2988 RMK A01 T02360179  RH  070%=      5-min Rain = 0
KWE2 270247Z 17019KT 24/18 A2988 RMK A01 T02360179  RH  070%=      5-min Rain = 0
KWE2 270248Z 17017KT 24/18 A2988 RMK A01 T02360179  RH  070%=      5-min Rain = 0
KWE2 270249Z 17022KT 24/18 A2988 RMK A01 T02360179  RH  070%=      5-min Rain = 0
KWE2 270250Z 17019KT 24/18 A2988 RMK A01 T02360178  RH  070%=      5-min Rain = 0
KWE2 270251Z 17020KT 24/18 A2988 RMK A01 T02360179  RH  070%=      5-min Rain = 0
KWE2 270252Z 17017KT 24/18 A2988 RMK A01 T02360178  RH  070%=      5-min Rain = 0
KWE2 270253Z 17016KT 24/18 A2988 RMK A01 T02350178  RH  070%=      5-min Rain = 0
KWE2 270254Z 17017KT 24/18 A2988 RMK A01 T02350179  RH  071%=      5-min Rain = 0
KWE2 270255Z 17018KT 23/18 A2989 RMK A01 T02340178  RH  071%=      5-min Rain = 0
KWE2 270256Z 17018KT 23/18 A2989 RMK A01 T02340178  RH  071%=      5-min Rain = 0
KWE2 270257Z 16019KT 23/18 A2989 RMK A01 T02340178  RH  071%=      5-min Rain = 0
KWE2 270258Z 17017KT 23/18 A2989 RMK A01 T02340178  RH  071%=      5-min Rain = 0
KWE2 270259Z 17019KT 23/18 A2989 RMK A01 T02340178  RH  071%=      5-min Rain = 0
KWE2 270300Z 17017KT 23/18 A2989 RMK A01 T02340179  RH  071%=      5-min Rain = 0
KWE2 270301Z 17017KT 23/18 A2989 RMK A01 T02340178  RH  071%=      5-min Rain = 0
KWE2 270302Z 17017KT 23/18 A2989 RMK A01 T02340179  RH  071%=      5-min Rain = 0
KWE2 270303Z 17016KT 23/18 A2989 RMK A01 T02330178  RH  071%=      5-min Rain = 0
KWE2 270304Z 17016KT 23/18 A2989 RMK A01 T02330178  RH  071%=      5-min Rain = 0
KWE2 270305Z 16016KT 23/18 A2989 RMK A01 T02320178  RH  072%=      5-min Rain = 0
KWE2 270306Z 16018KT 23/18 A2988 RMK A01 T02320178  RH  072%=      5-min Rain = 0
KWE2 270307Z 17017KT 23/18 A2988 RMK A01 T02320178  RH  072%=      5-min Rain = 0
KWE2 270308Z 16017KT 23/18 A2988 RMK A01 T02320178  RH  071%=      5-min Rain = 0
KWE2 270309Z 16018KT 23/18 A2988 RMK A01 T02320178  RH  072%=      5-min Rain = 0
KWE2 270310Z 17016KT 23/18 A2989 RMK A01 T02320178  RH  072%=      5-min Rain = 0
KWE2 270311Z 16017KT 23/18 A2988 RMK A01 T02310178  RH  072%=      5-min Rain = 0
KWE2 270312Z 16015KT 23/18 A2988 RMK A01 T02310178  RH  072%=      5-min Rain = 0
KWE2 270313Z 17018KT 23/18 A2988 RMK A01 T02310178  RH  072%=      5-min Rain = 0
KWE2 270314Z 17016G22KT 23/18 A2988 RMK A01 T02300177  RH  072%=      5-min Rain = 0
KWE2 270315Z 17016KT 23/18 A2988 RMK A01 T02300178  RH  072%=      5-min Rain = 0
KWE2 270316Z 17016KT 23/18 A2988 RMK A01 T02300178  RH  072%=      5-min Rain = 0
KWE2 270317Z 17016KT 23/18 A2988 RMK A01 T02300177  RH  072%=      5-min Rain = 0
KWE2 270318Z 17016KT 23/18 A2988 RMK A01 T02300178  RH  072%=      5-min Rain = 0
KWE2 270319Z 16017KT 23/18 A2988 RMK A01 T02300178  RH  072%=      5-min Rain = 0
KWE2 270320Z 17016KT 23/18 A2988 RMK A01 T02290177  RH  073%=      5-min Rain = 0
KWE2 270321Z 17016KT 23/18 A2988 RMK A01 T02300178  RH  073%=      5-min Rain = 0
KWE2 270322Z 17016KT 23/18 A2988 RMK A01 T02290178  RH  073%=      5-min Rain = 0
KWE2 270323Z 17017KT 23/18 A2988 RMK A01 T02290177  RH  073%=      5-min Rain = 0
KWE2 270324Z 17017KT 23/18 A2988 RMK A01 T02290177  RH  073%=      5-min Rain = 0
KWE2 270325Z 16014KT 23/18 A2988 RMK A01 T02290178  RH  073%=      5-min Rain = 0
KWE2 270326Z 16016KT 23/18 A2988 RMK A01 T02290178  RH  073%=      5-min Rain = 0
KWE2 270327Z 17016KT 23/18 A2988 RMK A01 T02280177  RH  073%=      5-min Rain = 0
KWE2 270328Z 17016KT 23/18 A2988 RMK A01 T02280177  RH  073%=      5-min Rain = 0
KWE2 270329Z 17015KT 23/18 A2989 RMK A01 T02290177  RH  073%=      5-min Rain = 0
KWE2 270330Z 16016KT 23/18 A2989 RMK A01 T02280177  RH  073%=      5-min Rain = 0
KWE2 270331Z 16015KT 23/18 A2989 RMK A01 T02290177  RH  073%=      5-min Rain = 0
KWE2 270332Z 16015KT 23/18 A2989 RMK A01 T02280177  RH  073%=      5-min Rain = 0
KWE2 270333Z 16015KT 23/18 A2989 RMK A01 T02280177  RH  073%=      5-min Rain = 0
KWE2 270334Z 16015KT 23/18 A2989 RMK A01 T02280178  RH  073%=      5-min Rain = 0
KWE2 270335Z 16016KT 23/18 A2989 RMK A01 T02280177  RH  073%=      5-min Rain = 0
KWE2 270336Z 16016KT 23/18 A2989 RMK A01 T02270177  RH  073%=      5-min Rain = 0
KWE2 270337Z 16015KT 23/18 A2989 RMK A01 T02270177  RH  073%=      5-min Rain = 0
KWE2 270338Z 16015KT 23/18 A2989 RMK A01 T02280178  RH  073%=      5-min Rain = 0
KWE2 270339Z 16014KT 23/18 A2989 RMK A01 T02270177  RH  073%=      5-min Rain = 0
KWE2 270340Z 16014KT 23/18 A2989 RMK A01 T02270177  RH  073%=      5-min Rain = 0
KWE2 270341Z 16014KT 23/18 A2989 RMK A01 T02260177  RH  073%=      5-min Rain = 0
KWE2 270342Z 16014KT 23/18 A2989 RMK A01 T02270177  RH  074%=      5-min Rain = 0
KWE2 270343Z 16015KT 23/18 A2989 RMK A01 T02260177  RH  074%=      5-min Rain = 0
KWE2 270344Z 16016KT 23/18 A2989 RMK A01 T02260177  RH  074%=      5-min Rain = 0
KWE2 270345Z 16014KT 23/18 A2989 RMK A01 T02270177  RH  073%=      5-min Rain = 0
KWE2 270346Z 16013KT 23/18 A2989 RMK A01 T02260177  RH  074%=      5-min Rain = 0
KWE2 270347Z 16015KT 23/18 A2989 RMK A01 T02260177  RH  074%=      5-min Rain = 0
KWE2 270348Z 16014KT 23/18 A2989 RMK A01 T02250177  RH  074%=      5-min Rain = 0
KWE2 270349Z 16013KT 23/18 A2989 RMK A01 T02250176  RH  074%=      5-min Rain = 0
KWE2 270350Z 16014KT 23/18 A2989 RMK A01 T02250177  RH  074%=      5-min Rain = 0
KWE2 270351Z 16014KT 23/18 A2989 RMK A01 T02250177  RH  074%=      5-min Rain = 0
KWE2 270352Z 16012KT 23/18 A2989 RMK A01 T02250177  RH  074%=      5-min Rain = 0
KWE2 270353Z 16013KT 23/18 A2989 RMK A01 T02250177  RH  074%=      5-min Rain = 0
KWE2 270354Z 16012KT 22/18 A2989 RMK A01 T02240177  RH  074%=      5-min Rain = 0
KWE2 270355Z 16012KT 22/18 A2989 RMK A01 T02240177  RH  074%=      5-min Rain = 0
KWE2 270356Z 16014KT 22/18 A2989 RMK A01 T02240176  RH  075%=      5-min Rain = 0
KWE2 270357Z 16012KT 22/18 A2989 RMK A01 T02230176  RH  075%=      5-min Rain = 0
KWE2 270358Z 16012KT 22/18 A2989 RMK A01 T02230177  RH  075%=      5-min Rain = 0
KWE2 270359Z 17012KT 22/18 A2989 RMK A01 T02230176  RH  075%=      5-min Rain = 0
KWE2 270400Z 16012KT 22/18 A2989 RMK A01 T02230176  RH  075%=      5-min Rain = 0
KWE2 270401Z 16014KT 22/18 A2989 RMK A01 T02230176  RH  075%=      5-min Rain = 0
KWE2 270402Z 16012KT 22/18 A2989 RMK A01 T02240176  RH  075%=      5-min Rain = 0
KWE2 270403Z 16012KT 22/18 A2989 RMK A01 T02240176  RH  074%=      5-min Rain = 0
KWE2 270404Z 16012KT 22/18 A2989 RMK A01 T02230176  RH  075%=      5-min Rain = 0
KWE2 270405Z 17012KT 22/18 A2989 RMK A01 T02230176  RH  075%=      5-min Rain = 0
KWE2 270406Z 16013KT 22/18 A2989 RMK A01 T02230176  RH  075%=      5-min Rain = 0
KWE2 270407Z 17012KT 22/18 A2989 RMK A01 T02230176  RH  075%=      5-min Rain = 0
KWE2 270408Z 17011KT 22/18 A2989 RMK A01 T02230176  RH  075%=      5-min Rain = 0
KWE2 270409Z 17011KT 22/18 A2989 RMK A01 T02230176  RH  075%=      5-min Rain = 0
KWE2 270410Z 17012KT 22/18 A2989 RMK A01 T02220176  RH  075%=      5-min Rain = 0
KWE2 270411Z 17013KT 22/18 A2989 RMK A01 T02220176  RH  075%=      5-min Rain = 0
KWE2 270412Z 17012KT 22/18 A2989 RMK A01 T02220176  RH  075%=      5-min Rain = 0
KWE2 270413Z 17011KT 22/18 A2989 RMK A01 T02220176  RH  075%=      5-min Rain = 0
KWE2 270414Z 17011KT 22/18 A2989 RMK A01 T02210176  RH  075%=      5-min Rain = 0
KWE2 270415Z 17011KT 22/18 A2989 RMK A01 T02210176  RH  075%=      5-min Rain = 0
KWE2 270416Z 17011KT 22/18 A2989 RMK A01 T02210176  RH  076%=      5-min Rain = 0
KWE2 270417Z 17010KT 22/18 A2989 RMK A01 T02210176  RH  076%=      5-min Rain = 0
KWE2 270418Z 17011KT 22/18 A2989 RMK A01 T02200176  RH  076%=      5-min Rain = 0
KWE2 270419Z 17011KT 22/18 A2989 RMK A01 T02200176  RH  076%=      5-min Rain = 0
KWE2 270420Z 17011KT 22/18 A2989 RMK A01 T02200176  RH  076%=      5-min Rain = 0
KWE2 270421Z 17012KT 22/18 A2989 RMK A01 T02200175  RH  076%=      5-min Rain = 0
KWE2 270422Z 17013KT 22/18 A2989 RMK A01 T02200176  RH  076%=      5-min Rain = 0
KWE2 270423Z 17012KT 22/18 A2989 RMK A01 T02200175  RH  076%=      5-min Rain = 0
KWE2 270424Z 17011KT 22/18 A2989 RMK A01 T02210176  RH  076%=      5-min Rain = 0
KWE2 270425Z 17010KT 22/18 A299 RMK A01 T02200176  RH  076%=      5-min Rain = 0
KWE2 270426Z 17011KT 22/18 A299 RMK A01 T02200176  RH  076%=      5-min Rain = 0
KWE2 270427Z 17012KT 22/18 A2989 RMK A01 T02190176  RH  076%=      5-min Rain = 0
KWE2 270428Z 17012KT 22/18 A2989 RMK A01 T02190176  RH  076%=      5-min Rain = 0
KWE2 270429Z 17013KT 22/18 A2989 RMK A01 T02200175  RH  076%=      5-min Rain = 0
KWE2 270430Z 17011KT 22/18 A2989 RMK A01 T02200176  RH  076%=      5-min Rain = 0
KWE2 270431Z 17011KT 22/18 A2989 RMK A01 T02200176  RH  076%=      5-min Rain = 0
KWE2 270432Z 17011KT 22/18 A2989 RMK A01 T02200176  RH  076%=      5-min Rain = 0
KWE2 270433Z 16011KT 22/18 A2989 RMK A01 T02190175  RH  076%=      5-min Rain = 0
KWE2 270434Z 17011KT 22/18 A2989 RMK A01 T02180175  RH  077%=      5-min Rain = 0
KWE2 270435Z 16010KT 22/18 A2989 RMK A01 T02180176  RH  077%=      5-min Rain = 0
KWE2 270436Z 16010KT 22/18 A2989 RMK A01 T02180176  RH  077%=      5-min Rain = 0
KWE2 270437Z 17010KT 22/18 A2989 RMK A01 T02180176  RH  077%=      5-min Rain = 0
KWE2 270438Z 17008KT 22/18 A2989 RMK A01 T02170175  RH  077%=      5-min Rain = 0
KWE2 270439Z 17009KT 22/18 A2989 RMK A01 T02180175  RH  077%=      5-min Rain = 0
KWE2 270440Z 18008KT 22/18 A2989 RMK A01 T02170175  RH  077%=      5-min Rain = 0
KWE2 270441Z 18007KT 22/18 A299 RMK A01 T02170175  RH  077%=      5-min Rain = 0
KWE2 270442Z 18006KT 22/18 A299 RMK A01 T02160175  RH  077%=      5-min Rain = 0
KWE2 270443Z 18007KT 22/18 A299 RMK A01 T02160175  RH  078%=      5-min Rain = 0
KWE2 270444Z 18006KT 22/18 A299 RMK A01 T02150175  RH  078%=      5-min Rain = 0
KWE2 270445Z 17007KT 22/18 A2989 RMK A01 T02150175  RH  078%=      5-min Rain = 0
KWE2 270446Z 17007KT 21/18 A2989 RMK A01 T02140175  RH  078%=      5-min Rain = 0
KWE2 270447Z 16008KT 21/18 A2989 RMK A01 T02140175  RH  078%=      5-min Rain = 0
KWE2 270448Z 16008KT 21/17 A2989 RMK A01 T02130174  RH  079%=      5-min Rain = 0
KWE2 270449Z 16009KT 21/18 A2989 RMK A01 T02120175  RH  079%=      5-min Rain = 0
KWE2 270450Z 16009KT 21/18 A2989 RMK A01 T02120175  RH  079%=      5-min Rain = 0
KWE2 270451Z 15009KT 21/18 A2989 RMK A01 T02130175  RH  079%=      5-min Rain = 0
KWE2 270452Z 16010KT 21/18 A2989 RMK A01 T02120175  RH  079%=      5-min Rain = 0
KWE2 270453Z 16010KT 21/17 A2989 RMK A01 T02120174  RH  079%=      5-min Rain = 0
KWE2 270454Z 16011KT 21/18 A2989 RMK A01 T02110175  RH  080%=      5-min Rain = 0
KWE2 270455Z 16012KT 21/18 A2989 RMK A01 T02120175  RH  080%=      5-min Rain = 0
KWE2 270456Z 16012KT 21/18 A2989 RMK A01 T02120175  RH  079%=      5-min Rain = 0
KWE2 270457Z 16011KT 21/18 A2989 RMK A01 T02120175  RH  079%=      5-min Rain = 0
KWE2 270458Z 16011KT 21/18 A2989 RMK A01 T02120175  RH  079%=      5-min Rain = 0
KWE2 270459Z 16012KT 21/18 A2989 RMK A01 T02120175  RH  079%=      5-min Rain = 0

Page generated in 0.0329 seconds.